DLH733 ZSPD-EDDF

Flight info

Callsign DLH733
Flight time N/A
Altitude 34100
Route PIK81D PIKAS G330 PIMOL A593 DALIM W157 VYK G212 SOTMU B339 ASILA A575 UPREK W28 ATBUG W66 NUKTI B215 FKG A368 SARIN N161 LEYLA N644 LAGAS SARPI UM10 GOKPA UL746 ODERO LUGEB DEGET ARSIN SUBEN AKINI T161 DEBHI DEBH1D
Aircraft A359/H-SDE2E3GHIJ3J4J5LM1ORWXY/LB1D1

Departure

Time 2026-05-07 05:15
Airport Shanghai Pudong International Airport (ZSPD)

Arrival

Time N/A
Airport Frankfurt Main Airport (EDDF)
Time Latitude Longitude Altitude Speed Heading
2026-05-07 05:05 31.15329 121.79574 29 ft 0 kts 72°
2026-05-07 05:06 31.15327 121.79567 29 ft 2 kts 72°
2026-05-07 05:06 31.15321 121.79549 29 ft 2 kts 68°
2026-05-07 05:06 31.15314 121.79532 29 ft 2 kts 65°
2026-05-07 05:07 31.15307 121.79515 29 ft 2 kts 59°
2026-05-07 05:07 31.15298 121.79499 28 ft 2 kts 50°
2026-05-07 05:07 31.15286 121.79486 28 ft 2 kts 32°
2026-05-07 05:07 31.15271 121.79479 28 ft 2 kts 360°
2026-05-07 05:08 31.15260 121.79480 28 ft 0 kts 343°
2026-05-07 05:09 31.15276 121.79475 29 ft 7 kts 342°
2026-05-07 05:09 31.15296 121.79438 29 ft 7 kts 257°
2026-05-07 05:10 31.15273 121.79352 29 ft 16 kts 252°
2026-05-07 05:10 31.15231 121.79199 29 ft 23 kts 252°
2026-05-07 05:10 31.15228 121.79134 29 ft 1 kts 274°
2026-05-07 05:10 31.15238 121.79127 29 ft 0 kts 339°
2026-05-07 05:11 31.15279 121.79122 29 ft 16 kts 355°
2026-05-07 05:11 31.15387 121.79096 29 ft 15 kts 342°
2026-05-07 05:11 31.15486 121.79059 28 ft 15 kts 342°
2026-05-07 05:11 31.15584 121.79021 28 ft 15 kts 342°
2026-05-07 05:12 31.15680 121.78985 28 ft 14 kts 343°
2026-05-07 05:12 31.15773 121.78951 28 ft 14 kts 341°
2026-05-07 05:12 31.15864 121.78915 29 ft 14 kts 342°
2026-05-07 05:12 31.15950 121.78884 29 ft 13 kts 342°
2026-05-07 05:13 31.16034 121.78853 29 ft 13 kts 341°
2026-05-07 05:13 31.16117 121.78818 29 ft 12 kts 331°
2026-05-07 05:13 31.16142 121.78744 29 ft 10 kts 261°
2026-05-07 05:13 31.16126 121.78670 29 ft 9 kts 253°
2026-05-07 05:14 31.16086 121.78620 28 ft 9 kts 191°
2026-05-07 05:14 31.16030 121.78636 28 ft 12 kts 162°
2026-05-07 05:14 31.15753 121.78740 29 ft 73 kts 162°
2026-05-07 05:14 31.15082 121.78993 30 ft 128 kts 162°
2026-05-07 05:15 31.14076 121.79371 27 ft 175 kts 161°
2026-05-07 05:15 31.12881 121.79845 548 ft 176 kts 163°
2026-05-07 05:15 31.11709 121.80255 1173 ft 176 kts 169°
2026-05-07 05:15 31.10485 121.80409 1776 ft 178 kts 182°
2026-05-07 05:16 31.09241 121.80217 2167 ft 185 kts 197°
2026-05-07 05:16 31.08000 121.79628 2310 ft 200 kts 212°
2026-05-07 05:16 31.06875 121.78594 2453 ft 218 kts 230°
2026-05-07 05:16 31.05999 121.77088 2741 ft 231 kts 245°
2026-05-07 05:17 31.05367 121.75299 3021 ft 246 kts 251°
2026-05-07 05:17 31.04757 121.73382 3434 ft 256 kts 251°
2026-05-07 05:17 31.04126 121.71423 3939 ft 260 kts 251°
2026-05-07 05:17 31.03474 121.69436 4482 ft 263 kts 250°
2026-05-07 05:18 31.02806 121.67433 5058 ft 266 kts 250°
2026-05-07 05:18 31.02167 121.65410 5589 ft 267 kts 256°
2026-05-07 05:18 31.02006 121.63268 6171 ft 266 kts 280°
2026-05-07 05:18 31.02540 121.61216 6800 ft 265 kts 292°
2026-05-07 05:19 31.03254 121.59222 7407 ft 267 kts 292°
2026-05-07 05:19 31.03968 121.57237 8004 ft 270 kts 291°
2026-05-07 05:19 31.04688 121.55211 8633 ft 271 kts 291°
2026-05-07 05:19 31.05409 121.53171 9254 ft 273 kts 290°
2026-05-07 05:20 31.06127 121.51117 9874 ft 275 kts 290°
2026-05-07 05:20 31.06859 121.49028 10268 ft 284 kts 290°
2026-05-07 05:20 31.07623 121.46848 10533 ft 297 kts 290°
2026-05-07 05:20 31.08420 121.44569 10809 ft 310 kts 290°
2026-05-07 05:21 31.09273 121.42201 11065 ft 323 kts 292°
2026-05-07 05:21 31.11172 121.37222 11576 ft 347 kts 292°
2026-05-07 05:21 31.12417 121.34743 11805 ft 361 kts 306°
2026-05-07 05:22 31.14323 121.32759 12029 ft 376 kts 324°
2026-05-07 05:22 31.16584 121.31167 12370 ft 383 kts 327°
2026-05-07 05:22 31.18904 121.29607 12779 ft 386 kts 327°
2026-05-07 05:22 31.21243 121.28024 13201 ft 389 kts 327°
2026-05-07 05:23 31.23594 121.26421 13631 ft 392 kts 326°
2026-05-07 05:23 31.25928 121.24823 14012 ft 394 kts 326°
2026-05-07 05:23 31.28304 121.23191 14380 ft 397 kts 326°
2026-05-07 05:23 31.30687 121.21551 14750 ft 399 kts 326°
2026-05-07 05:24 31.33091 121.19895 15133 ft 401 kts 326°
2026-05-07 05:24 31.35503 121.18232 15498 ft 403 kts 326°
2026-05-07 05:24 31.37924 121.16563 15879 ft 405 kts 326°
2026-05-07 05:24 31.40361 121.14881 16234 ft 407 kts 326°
2026-05-07 05:25 31.42811 121.13188 16572 ft 410 kts 326°
2026-05-07 05:25 31.45309 121.11549 16905 ft 414 kts 330°
2026-05-07 05:25 31.47896 121.10119 17250 ft 417 kts 332°
2026-05-07 05:25 31.50545 121.08715 17579 ft 419 kts 332°
2026-05-07 05:26 31.53206 121.07307 17907 ft 421 kts 332°
2026-05-07 05:26 31.55892 121.05883 18218 ft 423 kts 332°
2026-05-07 05:26 31.58593 121.04449 18504 ft 425 kts 332°
2026-05-07 05:26 31.61288 121.03016 18802 ft 426 kts 332°
2026-05-07 05:27 31.63992 121.01577 19081 ft 428 kts 332°
2026-05-07 05:27 31.66711 121.00128 19369 ft 429 kts 332°
2026-05-07 05:27 31.69438 120.98675 19676 ft 430 kts 332°
2026-05-07 05:27 31.72129 120.97239 20007 ft 431 kts 332°
2026-05-07 05:28 31.74865 120.95778 20285 ft 432 kts 332°
2026-05-07 05:28 31.77607 120.94313 20610 ft 433 kts 331°
2026-05-07 05:28 31.80354 120.92845 20905 ft 435 kts 331°
2026-05-07 05:28 31.83117 120.91366 21187 ft 437 kts 331°
2026-05-07 05:29 31.85888 120.89883 21475 ft 439 kts 331°
2026-05-07 05:29 31.88672 120.88391 21784 ft 440 kts 331°
2026-05-07 05:29 31.91468 120.86893 22083 ft 442 kts 331°
2026-05-07 05:29 31.93368 120.85874 22262 ft 444 kts 331°
2026-05-07 05:30 31.96143 120.84385 22563 ft 446 kts 331°
2026-05-07 05:30 31.99933 120.82348 22884 ft 450 kts 331°
2026-05-07 05:30 32.01832 120.81328 23061 ft 451 kts 331°
2026-05-07 05:30 32.04694 120.79789 23342 ft 453 kts 331°
2026-05-07 05:31 32.07569 120.78226 23581 ft 455 kts 330°
2026-05-07 05:31 32.10301 120.76377 23802 ft 451 kts 321°
2026-05-07 05:31 32.12702 120.74023 24040 ft 447 kts 311°
2026-05-07 05:31 32.14689 120.71216 24291 ft 444 kts 301°
2026-05-07 05:32 32.16203 120.68061 24550 ft 441 kts 291°
2026-05-07 05:32 32.17217 120.64640 24812 ft 440 kts 282°
2026-05-07 05:32 32.17758 120.61087 25107 ft 440 kts 276°
2026-05-07 05:32 32.18122 120.57497 25388 ft 441 kts 275°
2026-05-07 05:33 32.18415 120.53886 25682 ft 443 kts 274°
2026-05-07 05:33 32.18683 120.50252 25985 ft 444 kts 274°
2026-05-07 05:33 32.18946 120.46655 26277 ft 446 kts 274°
2026-05-07 05:33 32.19222 120.42992 26587 ft 448 kts 274°
2026-05-07 05:34 32.19508 120.39326 26892 ft 449 kts 274°
2026-05-07 05:34 32.19803 120.35649 27246 ft 450 kts 274°
2026-05-07 05:34 32.20102 120.31965 27540 ft 451 kts 274°
2026-05-07 05:34 32.20403 120.28271 27817 ft 453 kts 274°
2026-05-07 05:35 32.20712 120.24546 28088 ft 455 kts 274°
2026-05-07 05:35 32.21019 120.20816 28357 ft 457 kts 274°
2026-05-07 05:35 32.21326 120.17070 28624 ft 459 kts 274°
2026-05-07 05:35 32.21630 120.13320 28866 ft 460 kts 274°
2026-05-07 05:36 32.21932 120.09591 29088 ft 462 kts 274°
2026-05-07 05:36 32.22237 120.05801 29290 ft 464 kts 274°
2026-05-07 05:36 32.22543 120.01995 29608 ft 464 kts 274°
2026-05-07 05:36 32.22847 119.98202 29977 ft 462 kts 274°
2026-05-07 05:37 32.23148 119.94426 30295 ft 461 kts 274°
2026-05-07 05:37 32.23448 119.90659 30614 ft 459 kts 274°
2026-05-07 05:37 32.23804 119.86920 30930 ft 458 kts 277°
2026-05-07 05:37 32.24484 119.83254 31248 ft 458 kts 284°
2026-05-07 05:38 32.25553 119.79752 31585 ft 459 kts 291°
2026-05-07 05:38 32.27042 119.76419 31873 ft 461 kts 298°
2026-05-07 05:38 32.28946 119.73345 32134 ft 466 kts 306°
2026-05-07 05:38 32.31239 119.70615 32395 ft 471 kts 314°
2026-05-07 05:39 32.33828 119.68199 32634 ft 473 kts 317°
2026-05-07 05:39 32.36482 119.65893 32884 ft 473 kts 319°
2026-05-07 05:39 32.39162 119.63628 33120 ft 473 kts 319°
2026-05-07 05:39 32.41849 119.61374 33350 ft 472 kts 319°
2026-05-07 05:40 32.44526 119.59123 33590 ft 472 kts 319°
2026-05-07 05:40 32.47199 119.56863 33800 ft 471 kts 318°
2026-05-07 05:40 32.49828 119.54625 33990 ft 471 kts 318°
2026-05-07 05:41 32.55155 119.50020 34062 ft 477 kts 317°
2026-05-07 05:41 32.60553 119.45329 34061 ft 482 kts 317°
2026-05-07 05:42 32.65964 119.40638 34063 ft 482 kts 318°
2026-05-07 05:42 32.71378 119.35943 34063 ft 482 kts 317°
2026-05-07 05:43 32.76788 119.31244 34065 ft 481 kts 317°
2026-05-07 05:43 32.82158 119.26570 34071 ft 482 kts 317°
2026-05-07 05:44 32.87564 119.21858 34078 ft 482 kts 318°
2026-05-07 05:44 32.92978 119.17132 34086 ft 482 kts 318°
2026-05-07 05:45 32.98391 119.12428 34093 ft 482 kts 318°
2026-05-07 05:45 33.03831 119.07754 34098 ft 482 kts 318°
2026-05-07 05:46 33.09268 119.03077 34098 ft 482 kts 318°
2026-05-07 05:46 33.14706 118.98383 34104 ft 482 kts 318°
2026-05-07 05:47 33.20110 118.93710 34119 ft 476 kts 318°
2026-05-07 05:47 33.25444 118.89079 34122 ft 472 kts 318°
2026-05-07 05:48 33.30715 118.84458 34117 ft 472 kts 318°
2026-05-07 05:48 33.36021 118.79846 34129 ft 472 kts 318°
2026-05-07 05:49 33.41352 118.75227 34144 ft 472 kts 318°
2026-05-07 05:49 33.46678 118.70607 34140 ft 472 kts 318°
2026-05-07 05:50 33.52001 118.65999 34165 ft 470 kts 318°
2026-05-07 05:50 33.57265 118.61436 34145 ft 464 kts 318°
2026-05-07 05:51 33.62485 118.56899 34146 ft 463 kts 318°
2026-05-07 05:51 33.67662 118.52390 34151 ft 463 kts 318°
2026-05-07 05:52 33.72875 118.47844 34146 ft 462 kts 318°
2026-05-07 05:52 33.78070 118.43310 34147 ft 459 kts 318°
2026-05-07 05:53 33.83210 118.38823 34145 ft 455 kts 318°
2026-05-07 05:53 33.88327 118.34340 34147 ft 453 kts 317°
2026-05-07 05:54 33.93412 118.29882 34147 ft 451 kts 317°
2026-05-07 05:54 33.98483 118.25429 34147 ft 451 kts 317°
2026-05-07 05:55 34.03545 118.21018 34147 ft 451 kts 318°
2026-05-07 05:55 34.08626 118.16598 34145 ft 451 kts 317°
2026-05-07 05:56 34.13734 118.12158 34142 ft 452 kts 317°
2026-05-07 05:56 34.18836 118.07711 34143 ft 451 kts 317°
2026-05-07 05:57 34.23900 118.03287 34135 ft 452 kts 317°
2026-05-07 05:57 34.29429 117.99474 34138 ft 467 kts 330°
2026-05-07 05:58 34.35650 117.96972 34144 ft 472 kts 335°
2026-05-07 05:58 34.41970 117.94734 34132 ft 472 kts 335°
2026-05-07 05:59 34.48247 117.92538 34129 ft 472 kts 335°
2026-05-07 05:59 34.54549 117.90301 34137 ft 472 kts 335°
2026-05-07 06:00 34.60850 117.88043 34142 ft 471 kts 335°
2026-05-07 06:00 34.67122 117.85790 34138 ft 470 kts 335°
2026-05-07 06:01 34.73383 117.83536 34136 ft 470 kts 335°
2026-05-07 06:01 34.79627 117.81286 34139 ft 470 kts 335°
2026-05-07 06:02 34.85942 117.79009 34076 ft 466 kts 334°
2026-05-07 06:02 34.92101 117.76756 34041 ft 466 kts 334°
2026-05-07 06:03 34.98322 117.74461 34043 ft 467 kts 334°
2026-05-07 06:03 35.04539 117.72178 34045 ft 467 kts 334°
2026-05-07 06:04 35.10786 117.69894 34056 ft 467 kts 334°
2026-05-07 06:04 35.16995 117.67620 34051 ft 464 kts 334°
2026-05-07 06:05 35.23141 117.65358 34051 ft 464 kts 334°
2026-05-07 06:05 35.29316 117.63082 34051 ft 464 kts 334°
2026-05-07 06:06 35.35506 117.60799 34075 ft 464 kts 333°
2026-05-07 06:06 35.41662 117.58530 34064 ft 461 kts 333°
2026-05-07 06:07 35.47802 117.56259 34063 ft 460 kts 333°
2026-05-07 06:07 35.53933 117.53985 34060 ft 460 kts 333°
2026-05-07 06:08 35.60065 117.51709 34061 ft 460 kts 333°
2026-05-07 06:08 35.66155 117.49446 34067 ft 460 kts 333°
2026-05-07 06:09 35.72282 117.47165 34082 ft 460 kts 333°
2026-05-07 06:09 35.78411 117.44882 34081 ft 459 kts 333°
2026-05-07 06:10 35.84532 117.42597 34092 ft 458 kts 333°
2026-05-07 06:10 35.90635 117.40316 34076 ft 458 kts 333°
2026-05-07 06:11 35.96692 117.38046 34074 ft 458 kts 333°
2026-05-07 06:11 36.02791 117.35768 34074 ft 458 kts 333°
2026-05-07 06:12 36.08907 117.33513 34105 ft 458 kts 333°
2026-05-07 06:12 36.15003 117.31266 34081 ft 456 kts 332°
2026-05-07 06:13 36.21083 117.29011 34078 ft 456 kts 332°
2026-05-07 06:13 36.27167 117.26750 34099 ft 456 kts 332°
2026-05-07 06:14 36.33246 117.24490 34111 ft 456 kts 332°
2026-05-07 06:14 36.39252 117.22260 34099 ft 451 kts 332°
2026-05-07 06:15 36.45070 117.19602 34097 ft 443 kts 327°
2026-05-07 06:15 36.50764 117.16678 34111 ft 442 kts 326°
2026-05-07 06:16 36.56433 117.13717 34146 ft 440 kts 326°
2026-05-07 06:16 36.62069 117.10771 34107 ft 438 kts 326°
2026-05-07 06:17 36.66748 117.08327 34113 ft 438 kts 326°
2026-05-07 06:17 36.72373 117.05385 34113 ft 438 kts 326°
2026-05-07 06:18 36.77968 117.02456 34111 ft 438 kts 326°
2026-05-07 06:18 36.83586 116.99511 34113 ft 438 kts 326°
2026-05-07 06:19 36.89210 116.96558 34116 ft 438 kts 326°
2026-05-07 06:19 36.94834 116.93601 34119 ft 438 kts 326°
2026-05-07 06:20 37.00454 116.90642 34120 ft 438 kts 326°
2026-05-07 06:20 37.06064 116.87682 34160 ft 438 kts 326°
2026-05-07 06:21 37.11640 116.84739 34127 ft 436 kts 325°
2026-05-07 06:21 37.17228 116.81783 34119 ft 435 kts 325°
2026-05-07 06:22 37.22905 116.79011 34124 ft 443 kts 330°
2026-05-07 06:22 37.31790 116.75575 34163 ft 446 kts 330°
2026-05-07 06:23 37.37725 116.73353 34129 ft 444 kts 330°
2026-05-07 06:23 37.43636 116.71127 34131 ft 443 kts 330°
2026-05-07 06:24 37.49520 116.68896 34133 ft 443 kts 330°
2026-05-07 06:24 37.55419 116.66654 34166 ft 443 kts 330°
2026-05-07 06:25 37.61327 116.64406 34126 ft 442 kts 330°
2026-05-07 06:25 37.67189 116.62171 34135 ft 442 kts 330°
2026-05-07 06:26 37.73080 116.59922 34132 ft 442 kts 330°
2026-05-07 06:26 37.78974 116.57668 34194 ft 443 kts 330°
2026-05-07 06:27 37.84893 116.55397 34139 ft 445 kts 330°
2026-05-07 06:27 37.90823 116.53121 34136 ft 446 kts 330°
2026-05-07 06:28 37.96632 116.50574 34132 ft 433 kts 323°
2026-05-07 06:28 37.99239 116.48775 34137 ft 421 kts 316°
2026-05-07 06:28 38.01666 116.46724 34132 ft 418 kts 315°
2026-05-07 06:29 38.06397 116.42455 34138 ft 416 kts 314°
2026-05-07 06:29 38.11081 116.38116 34138 ft 416 kts 314°
2026-05-07 06:30 38.15732 116.33817 34139 ft 416 kts 314°
2026-05-07 06:30 38.20617 116.29744 34142 ft 428 kts 321°
2026-05-07 06:31 38.23380 116.28215 34145 ft 441 kts 328°
2026-05-07 06:31 38.26385 116.27174 34141 ft 456 kts 336°
2026-05-07 06:31 38.29600 116.26722 34158 ft 473 kts 347°
2026-05-07 06:31 38.32932 116.26956 34137 ft 491 kts 356°
2026-05-07 06:32 38.36341 116.27847 34137 ft 503 kts
2026-05-07 06:32 38.39746 116.28962 34133 ft 507 kts
2026-05-07 06:32 38.46553 116.31393 34137 ft 508 kts
2026-05-07 06:33 38.53367 116.33834 34131 ft 505 kts
2026-05-07 06:33 38.60088 116.36189 34134 ft 503 kts
2026-05-07 06:34 38.66842 116.38531 34129 ft 503 kts
2026-05-07 06:34 38.73583 116.40897 34128 ft 500 kts
2026-05-07 06:35 38.80290 116.43260 34129 ft 499 kts
2026-05-07 06:35 38.86992 116.45624 34165 ft 500 kts
2026-05-07 06:36 38.93692 116.47992 34124 ft 499 kts
2026-05-07 06:36 39.00381 116.50362 34125 ft 499 kts
2026-05-07 06:37 39.07077 116.52738 34148 ft 499 kts
2026-05-07 06:37 39.13718 116.55101 34118 ft 498 kts
2026-05-07 06:38 39.20403 116.57485 34113 ft 500 kts
2026-05-07 06:38 39.27073 116.60373 34117 ft 508 kts 11°
2026-05-07 06:39 39.33679 116.63618 34108 ft 508 kts 12°
2026-05-07 06:39 39.40290 116.66812 34125 ft 507 kts 11°
2026-05-07 06:40 39.46876 116.69914 34122 ft 506 kts 11°
2026-05-07 06:40 39.53492 116.73006 34116 ft 505 kts 11°
2026-05-07 06:41 39.60118 116.76106 34111 ft 505 kts 11°
2026-05-07 06:41 39.66683 116.79189 34104 ft 503 kts 11°
2026-05-07 06:42 39.73265 116.82289 34102 ft 502 kts 11°
2026-05-07 06:42 39.79895 116.84464 34147 ft 484 kts 357°
2026-05-07 06:43 39.83034 116.84597 34116 ft 472 kts 349°
2026-05-07 06:43 39.86367 116.84189 34109 ft 466 kts 345°
2026-05-07 06:43 39.92780 116.82997 34109 ft 464 kts 343°
2026-05-07 06:44 39.99162 116.81668 34102 ft 464 kts 343°
2026-05-07 06:44 40.05497 116.80363 34106 ft 464 kts 343°
2026-05-07 06:45 40.11879 116.79076 34102 ft 464 kts 343°
2026-05-07 06:45 40.18263 116.77798 34100 ft 464 kts 343°
2026-05-07 06:46 40.24658 116.76515 34102 ft 464 kts 343°
2026-05-07 06:46 40.31046 116.75222 34097 ft 463 kts 343°
2026-05-07 06:47 40.36758 116.73313 34096 ft 456 kts 336°
2026-05-07 06:47 40.42806 116.70920 34114 ft 456 kts 336°
2026-05-07 06:48 40.48892 116.68438 34092 ft 459 kts 336°
2026-05-07 06:48 40.54953 116.65965 34091 ft 460 kts 336°
2026-05-07 06:49 40.61063 116.63481 34093 ft 460 kts 336°
2026-05-07 06:49 40.67178 116.60995 34094 ft 461 kts 336°
2026-05-07 06:50 40.73328 116.58489 34091 ft 462 kts 336°
2026-05-07 06:50 40.79636 116.56604 34095 ft 472 kts 347°
2026-05-07 06:51 40.86198 116.55830 34110 ft 473 kts 349°
2026-05-07 06:51 40.92715 116.55241 34089 ft 472 kts 350°
2026-05-07 06:52 40.99271 116.54660 34084 ft 472 kts 349°
2026-05-07 06:52 41.05834 116.54063 34112 ft 472 kts 350°
2026-05-07 06:53 41.12371 116.53458 34085 ft 469 kts 350°
2026-05-07 06:53 41.18849 116.52839 34085 ft 468 kts 349°
2026-05-07 06:54 41.25114 116.51029 34104 ft 456 kts 334°
2026-05-07 06:54 41.30719 116.47280 34087 ft 450 kts 327°
2026-05-07 06:55 41.36116 116.43049 34087 ft 450 kts 325°
2026-05-07 06:55 41.41484 116.38746 34088 ft 450 kts 325°
2026-05-07 06:56 41.46850 116.34460 34096 ft 450 kts 326°
2026-05-07 06:56 41.52229 116.30180 34096 ft 450 kts 326°
2026-05-07 06:57 41.57615 116.25894 34091 ft 450 kts 326°
2026-05-07 06:57 41.62951 116.21641 34099 ft 449 kts 326°
2026-05-07 06:58 41.68314 116.17356 34101 ft 449 kts 326°
2026-05-07 06:58 41.73669 116.13067 34119 ft 449 kts 327°
2026-05-07 06:59 41.79025 116.08770 34101 ft 447 kts 327°
2026-05-07 06:59 41.84370 116.04473 34104 ft 447 kts 327°
2026-05-07 07:00 41.89670 116.00204 34108 ft 447 kts 326°
2026-05-07 07:00 41.94660 115.95286 34108 ft 444 kts 315°
2026-05-07 07:01 41.98451 115.88790 34115 ft 443 kts 302°
2026-05-07 07:01 42.01491 115.81573 34105 ft 444 kts 300°
2026-05-07 07:02 42.04419 115.74242 34109 ft 445 kts 299°
2026-05-07 07:02 42.07346 115.66911 34091 ft 445 kts 300°
2026-05-07 07:03 42.10289 115.59584 34110 ft 444 kts 300°
2026-05-07 07:03 42.13233 115.52262 34113 ft 444 kts 300°
2026-05-07 07:04 42.16151 115.44989 34115 ft 444 kts 300°
2026-05-07 07:04 42.19085 115.37656 34112 ft 444 kts 300°
2026-05-07 07:05 42.21790 115.30153 34116 ft 446 kts 292°
2026-05-07 07:05 42.23076 115.21932 34117 ft 453 kts 277°
2026-05-07 07:06 42.22821 115.13384 34121 ft 458 kts 269°
2026-05-07 07:06 42.22206 115.04806 34115 ft 459 kts 269°
2026-05-07 07:07 42.21663 114.97669 34121 ft 460 kts 269°
2026-05-07 07:07 42.21031 114.89078 34109 ft 460 kts 269°
2026-05-07 07:08 42.20312 114.79085 34125 ft 460 kts 269°
2026-05-07 07:08 42.19794 114.71898 34128 ft 460 kts 269°
2026-05-07 07:09 42.19169 114.63306 34132 ft 459 kts 269°
2026-05-07 07:09 42.18537 114.54741 34133 ft 460 kts 269°
2026-05-07 07:10 42.17902 114.46216 34135 ft 460 kts 269°
2026-05-07 07:10 42.17256 114.37631 34117 ft 459 kts 269°
2026-05-07 07:11 42.16604 114.29053 34140 ft 460 kts 269°
2026-05-07 07:11 42.15945 114.20463 34129 ft 460 kts 269°
2026-05-07 07:12 42.15278 114.11881 34135 ft 460 kts 269°
2026-05-07 07:12 42.14611 114.03372 34133 ft 460 kts 269°
2026-05-07 07:13 42.13934 113.94797 34145 ft 460 kts 269°
2026-05-07 07:13 42.13247 113.86200 34139 ft 461 kts 269°
2026-05-07 07:14 42.12557 113.77639 34137 ft 460 kts 269°
2026-05-07 07:14 42.11859 113.69052 34152 ft 461 kts 269°
2026-05-07 07:15 42.11154 113.60472 34140 ft 461 kts 269°
2026-05-07 07:15 42.10437 113.51944 34157 ft 460 kts 268°
2026-05-07 07:16 42.09109 113.43452 34158 ft 465 kts 262°
2026-05-07 07:16 42.07541 113.34993 34178 ft 465 kts 262°
2026-05-07 07:17 42.05931 113.26545 34175 ft 465 kts 262°
2026-05-07 07:17 42.04323 113.18108 34162 ft 465 kts 262°
2026-05-07 07:18 42.02715 113.09668 34146 ft 465 kts 262°
2026-05-07 07:18 42.01106 113.01248 34177 ft 465 kts 262°
2026-05-07 07:19 41.99504 112.92886 34178 ft 465 kts 262°
2026-05-07 07:19 41.97884 112.84477 34183 ft 465 kts 262°
2026-05-07 07:20 41.96257 112.76071 34173 ft 465 kts 262°
2026-05-07 07:20 41.94931 112.67616 34191 ft 457 kts 270°
2026-05-07 07:21 41.95213 112.59246 34191 ft 444 kts 286°
2026-05-07 07:21 41.96691 112.51200 34192 ft 442 kts 289°
2026-05-07 07:22 41.98333 112.43276 34184 ft 442 kts 290°
2026-05-07 07:22 41.99979 112.35321 34196 ft 441 kts 290°
2026-05-07 07:23 42.01595 112.27367 34193 ft 441 kts 289°
2026-05-07 07:23 42.03199 112.19378 34191 ft 441 kts 289°
2026-05-07 07:24 42.04790 112.11411 34173 ft 441 kts 289°
2026-05-07 07:24 42.06366 112.03489 34190 ft 440 kts 289°
2026-05-07 07:25 42.08735 111.91531 34190 ft 440 kts 289°
2026-05-07 07:26 42.10305 111.83570 34189 ft 440 kts 289°
2026-05-07 07:26 42.11871 111.75595 34190 ft 439 kts 289°
2026-05-07 07:27 42.13424 111.67652 34187 ft 438 kts 289°
2026-05-07 07:27 42.14960 111.59765 34174 ft 438 kts 289°
2026-05-07 07:28 42.16502 111.51822 34176 ft 438 kts 289°
2026-05-07 07:28 42.18037 111.43878 34188 ft 438 kts 289°
2026-05-07 07:29 42.19557 111.35920 34184 ft 439 kts 288°
2026-05-07 07:29 42.20197 111.27659 34178 ft 450 kts 274°
2026-05-07 07:30 42.19544 111.19265 34179 ft 454 kts 269°
2026-05-07 07:30 42.18624 111.10837 34168 ft 455 kts 268°
2026-05-07 07:31 42.17676 111.02419 34173 ft 454 kts 269°
2026-05-07 07:31 42.16747 110.94007 34173 ft 453 kts 269°
2026-05-07 07:32 42.15826 110.85590 34167 ft 453 kts 269°
2026-05-07 07:32 42.14903 110.77185 34160 ft 454 kts 269°
2026-05-07 07:33 42.13971 110.68762 34164 ft 453 kts 269°
2026-05-07 07:33 42.13040 110.60411 34152 ft 453 kts 268°
2026-05-07 07:34 42.12098 110.52033 34156 ft 452 kts 268°
2026-05-07 07:34 42.11151 110.43652 34157 ft 453 kts 268°
2026-05-07 07:35 42.10196 110.35253 34157 ft 453 kts 268°
2026-05-07 07:35 42.09233 110.26853 34147 ft 453 kts 268°
2026-05-07 07:36 42.08272 110.18519 34151 ft 453 kts 268°
2026-05-07 07:36 42.07297 110.10125 34138 ft 454 kts 268°
2026-05-07 07:37 42.06316 110.01729 34137 ft 454 kts 268°
2026-05-07 07:37 42.05329 109.93338 34134 ft 454 kts 267°
2026-05-07 07:38 42.04337 109.84960 34132 ft 453 kts 267°
2026-05-07 07:38 42.03338 109.76581 34125 ft 453 kts 267°
2026-05-07 07:39 42.02340 109.68261 34128 ft 453 kts 267°
2026-05-07 07:39 42.01331 109.59904 34126 ft 453 kts 267°
2026-05-07 07:40 42.00316 109.51541 34118 ft 453 kts 266°
2026-05-07 07:40 41.99295 109.43187 34110 ft 453 kts 266°
2026-05-07 07:41 41.98267 109.34826 34119 ft 452 kts 266°
2026-05-07 07:41 41.97237 109.26498 34114 ft 451 kts 266°
2026-05-07 07:42 41.96204 109.18215 34110 ft 449 kts 266°
2026-05-07 07:42 41.95169 109.09953 34111 ft 448 kts 266°
2026-05-07 07:43 41.94136 109.01747 34113 ft 448 kts 266°
2026-05-07 07:43 41.93089 108.93490 34105 ft 449 kts 266°
2026-05-07 07:44 41.92035 108.85226 34105 ft 449 kts 266°
2026-05-07 07:44 41.90977 108.76976 34080 ft 448 kts 265°
2026-05-07 07:45 41.89912 108.68725 34097 ft 449 kts 265°
2026-05-07 07:45 41.88839 108.60461 34089 ft 448 kts 265°
2026-05-07 07:46 41.87763 108.52226 34096 ft 447 kts 265°
2026-05-07 07:46 41.86689 108.44051 34093 ft 447 kts 265°
2026-05-07 07:47 41.85602 108.35818 34093 ft 448 kts 265°
2026-05-07 07:47 41.84511 108.27599 34090 ft 448 kts 265°
2026-05-07 07:48 41.83414 108.19388 34089 ft 448 kts 265°
2026-05-07 07:48 41.82309 108.11167 34084 ft 448 kts 265°
2026-05-07 07:49 41.81197 108.02937 34090 ft 448 kts 265°
2026-05-07 07:49 41.80080 107.94714 34084 ft 448 kts 265°
2026-05-07 07:50 41.78957 107.86497 34077 ft 448 kts 265°
2026-05-07 07:50 41.77829 107.78287 34090 ft 448 kts 264°
2026-05-07 07:51 41.76702 107.70136 34089 ft 448 kts 265°
2026-05-07 07:51 41.75560 107.61911 34084 ft 449 kts 265°
2026-05-07 07:52 41.74413 107.53701 34074 ft 449 kts 265°
2026-05-07 07:52 41.73260 107.45486 34064 ft 449 kts 264°
2026-05-07 07:53 41.72101 107.37277 34071 ft 449 kts 264°
2026-05-07 07:53 41.70931 107.29035 34053 ft 450 kts 264°
2026-05-07 07:54 41.69956 107.22199 34067 ft 449 kts 264°
2026-05-07 07:54 41.68778 107.13990 34061 ft 449 kts 264°
2026-05-07 07:55 41.67403 107.04456 34028 ft 449 kts 264°
2026-05-07 07:55 41.66415 106.97630 34055 ft 449 kts 263°
2026-05-07 07:56 41.65220 106.89431 34051 ft 449 kts 263°
2026-05-07 07:56 41.64018 106.81225 34056 ft 449 kts 263°
2026-05-07 07:57 41.62813 106.73035 34046 ft 449 kts 263°
2026-05-07 07:57 41.61599 106.64831 34057 ft 450 kts 263°
2026-05-07 07:58 41.60378 106.56621 34039 ft 450 kts 263°
2026-05-07 07:58 41.59158 106.48464 34039 ft 447 kts 263°
2026-05-07 07:59 41.57934 106.40323 34045 ft 447 kts 263°
2026-05-07 07:59 41.56708 106.32197 34031 ft 447 kts 263°
2026-05-07 08:00 41.55472 106.24053 34031 ft 447 kts 263°
2026-05-07 08:00 41.54240 106.15972 34034 ft 447 kts 263°
2026-05-07 08:01 41.52652 106.07919 34031 ft 452 kts 255°
2026-05-07 08:01 41.50394 106.00063 34017 ft 454 kts 253°
2026-05-07 08:02 41.48027 105.92253 34012 ft 452 kts 252°
2026-05-07 08:02 41.45674 105.84550 34020 ft 450 kts 252°
2026-05-07 08:03 41.43322 105.76821 34014 ft 450 kts 252°
2026-05-07 08:03 41.40965 105.69075 34017 ft 450 kts 252°
2026-05-07 08:04 41.38609 105.61344 34002 ft 450 kts 252°
2026-05-07 08:04 41.36244 105.53604 34015 ft 451 kts 252°
2026-05-07 08:05 41.33874 105.45874 34002 ft 451 kts 252°
2026-05-07 08:05 41.31511 105.38190 34008 ft 451 kts 252°
2026-05-07 08:06 41.29133 105.30481 34023 ft 451 kts 252°
2026-05-07 08:06 41.26746 105.22756 34007 ft 452 kts 251°
2026-05-07 08:07 41.24349 105.15028 34015 ft 452 kts 251°
2026-05-07 08:07 41.21944 105.07299 34013 ft 452 kts 251°
2026-05-07 08:08 41.19535 104.99579 34015 ft 451 kts 251°
2026-05-07 08:08 41.17151 104.91962 34005 ft 448 kts 251°
2026-05-07 08:09 41.14750 104.84306 34021 ft 449 kts 251°
2026-05-07 08:09 41.12341 104.76645 34018 ft 450 kts 251°
2026-05-07 08:10 41.09927 104.68993 34017 ft 450 kts 251°
2026-05-07 08:10 41.07520 104.61387 34018 ft 450 kts 251°
2026-05-07 08:11 41.05373 104.53647 34005 ft 444 kts 259°
2026-05-07 08:11 41.04717 104.45692 34011 ft 430 kts 274°
2026-05-07 08:12 41.05802 104.37971 34017 ft 427 kts 288°
2026-05-07 08:12 41.07863 104.30560 34009 ft 428 kts 290°
2026-05-07 08:13 41.10044 104.23215 34010 ft 428 kts 290°
2026-05-07 08:13 41.12224 104.15805 34012 ft 436 kts 290°
2026-05-07 08:14 41.14404 104.08285 34006 ft 440 kts 290°
2026-05-07 08:14 41.16584 104.00706 34004 ft 439 kts 290°
2026-05-07 08:15 41.18757 103.93127 34002 ft 439 kts 290°
2026-05-07 08:15 41.20925 103.85543 33995 ft 439 kts 290°
2026-05-07 08:16 41.23097 103.77927 34004 ft 441 kts 290°
2026-05-07 08:16 41.25256 103.70335 34002 ft 441 kts 290°
2026-05-07 08:17 41.27421 103.62699 33999 ft 441 kts 290°
2026-05-07 08:17 41.29582 103.55053 33998 ft 441 kts 290°
2026-05-07 08:18 41.31740 103.47397 33989 ft 441 kts 289°
2026-05-07 08:18 41.33886 103.39759 33993 ft 440 kts 289°
2026-05-07 08:19 41.36011 103.32173 33988 ft 440 kts 289°
2026-05-07 08:19 41.38145 103.24530 33992 ft 440 kts 289°
2026-05-07 08:20 41.40271 103.16892 33997 ft 440 kts 289°
2026-05-07 08:20 41.42395 103.09242 33991 ft 440 kts 289°
2026-05-07 08:21 41.44516 103.01577 33994 ft 441 kts 289°
2026-05-07 08:21 41.46610 102.93893 34000 ft 441 kts 288°
2026-05-07 08:22 41.48603 102.86129 33987 ft 449 kts 288°
2026-05-07 08:22 41.50630 102.78187 33985 ft 453 kts 289°
2026-05-07 08:23 41.52763 102.70297 33983 ft 452 kts 289°
2026-05-07 08:23 41.55005 102.62442 33983 ft 453 kts 290°
2026-05-07 08:24 41.57298 102.54607 33984 ft 453 kts 290°
2026-05-07 08:24 41.59565 102.46771 33985 ft 453 kts 290°
2026-05-07 08:25 41.61817 102.38904 33979 ft 453 kts 290°
2026-05-07 08:25 41.64043 102.31081 33984 ft 454 kts 290°
2026-05-07 08:26 41.67404 102.19230 33979 ft 454 kts 290°
2026-05-07 08:26 41.69637 102.11324 33976 ft 454 kts 290°
2026-05-07 08:27 41.71864 102.03419 33972 ft 454 kts 289°
2026-05-07 08:27 41.74088 101.95501 33976 ft 454 kts 289°
2026-05-07 08:28 41.76288 101.87639 33971 ft 453 kts 289°
2026-05-07 08:28 41.78496 101.79728 33977 ft 453 kts 289°
2026-05-07 08:29 41.80698 101.71813 33978 ft 454 kts 289°
2026-05-07 08:29 41.82911 101.63830 33966 ft 461 kts 290°
2026-05-07 08:30 41.85153 101.55719 33971 ft 464 kts 290°
2026-05-07 08:30 41.87391 101.47600 33968 ft 464 kts 289°
2026-05-07 08:31 41.89624 101.39466 33971 ft 464 kts 289°
2026-05-07 08:31 41.91853 101.31326 33965 ft 464 kts 289°
2026-05-07 08:32 41.94061 101.23231 33965 ft 465 kts 289°
2026-05-07 08:32 41.96281 101.15069 33961 ft 465 kts 289°
2026-05-07 08:33 41.98320 101.06848 33970 ft 464 kts 282°
2026-05-07 08:33 41.98982 100.98237 33963 ft 464 kts 271°
2026-05-07 08:34 41.98998 100.89532 33960 ft 464 kts 270°
2026-05-07 08:34 41.98915 100.80854 33967 ft 464 kts 270°
2026-05-07 08:35 41.98836 100.72219 33964 ft 464 kts 270°
2026-05-07 08:35 41.98769 100.63535 33964 ft 464 kts 270°
2026-05-07 08:36 41.98702 100.54853 33956 ft 465 kts 270°
2026-05-07 08:36 41.98628 100.46128 33965 ft 467 kts 270°
2026-05-07 08:37 41.98547 100.37402 33953 ft 467 kts 269°
2026-05-07 08:37 41.98459 100.28684 33955 ft 467 kts 269°
2026-05-07 08:38 41.98365 100.20016 33946 ft 467 kts 269°
2026-05-07 08:38 41.98263 100.11225 33964 ft 468 kts 269°
2026-05-07 08:39 41.98156 100.02538 33964 ft 468 kts 269°
2026-05-07 08:39 41.98041 99.93788 33949 ft 468 kts 269°
2026-05-07 08:40 41.97920 99.85053 33952 ft 465 kts 269°
2026-05-07 08:40 41.97794 99.76422 33952 ft 460 kts 269°
2026-05-07 08:41 41.97684 99.69260 33950 ft 461 kts 269°
2026-05-07 08:41 41.97547 99.60661 33953 ft 461 kts 269°
2026-05-07 08:42 41.97402 99.52041 33952 ft 461 kts 269°
2026-05-07 08:42 41.97227 99.42030 33955 ft 461 kts 269°
2026-05-07 08:43 41.97094 99.34817 33957 ft 461 kts 269°
2026-05-07 08:43 41.96932 99.26257 33958 ft 461 kts 269°
2026-05-07 08:44 41.96762 99.17652 33958 ft 461 kts 269°
2026-05-07 08:44 41.96586 99.09036 33957 ft 461 kts 269°
2026-05-07 08:45 41.96403 99.00454 33963 ft 460 kts 268°
2026-05-07 08:45 41.96214 98.91847 33967 ft 459 kts 268°
2026-05-07 08:46 41.96019 98.83277 33961 ft 459 kts 268°
2026-05-07 08:46 41.95819 98.74744 33967 ft 459 kts 268°
2026-05-07 08:47 41.95611 98.66135 33970 ft 462 kts 268°
2026-05-07 08:47 41.95395 98.57477 33975 ft 464 kts 268°
2026-05-07 08:48 41.95172 98.48801 33978 ft 464 kts 268°
2026-05-07 08:48 41.94943 98.40178 33975 ft 464 kts 268°
2026-05-07 08:49 41.94707 98.31496 33979 ft 465 kts 268°
2026-05-07 08:49 41.94464 98.22817 33978 ft 465 kts 268°
2026-05-07 08:50 41.94215 98.14141 33981 ft 465 kts 268°
2026-05-07 08:50 41.93959 98.05468 33982 ft 465 kts 268°
2026-05-07 08:51 41.93697 97.96798 33979 ft 465 kts 268°
2026-05-07 08:51 41.93429 97.88159 33981 ft 466 kts 268°
2026-05-07 08:52 41.93153 97.79447 33977 ft 466 kts 267°
2026-05-07 08:52 41.92874 97.70857 33978 ft 455 kts 267°
2026-05-07 08:53 41.92592 97.62405 33982 ft 452 kts 267°
2026-05-07 08:53 41.92305 97.53949 33984 ft 454 kts 267°
2026-05-07 08:54 41.92010 97.45460 33983 ft 455 kts 267°
2026-05-07 08:54 41.91711 97.37013 33982 ft 455 kts 267°
2026-05-07 08:55 41.91403 97.28519 33992 ft 455 kts 267°
2026-05-07 08:55 41.91089 97.20021 33991 ft 455 kts 267°
2026-05-07 08:56 41.90770 97.11556 33992 ft 455 kts 267°
2026-05-07 08:56 41.90444 97.03054 33993 ft 455 kts 267°
2026-05-07 08:57 41.90112 96.94574 34006 ft 455 kts 267°
2026-05-07 08:57 41.89775 96.86142 34013 ft 455 kts 267°
2026-05-07 08:58 41.89430 96.77650 34013 ft 458 kts 266°
2026-05-07 08:58 41.89076 96.69088 34027 ft 460 kts 266°
2026-05-07 08:59 41.88714 96.60487 34027 ft 460 kts 266°
2026-05-07 08:59 41.88346 96.51911 34028 ft 460 kts 266°
2026-05-07 09:00 41.87973 96.43339 34034 ft 460 kts 266°
2026-05-07 09:00 41.87593 96.34789 34043 ft 462 kts 266°
2026-05-07 09:01 41.87205 96.26181 34035 ft 463 kts 266°
2026-05-07 09:01 41.86932 96.17561 34036 ft 463 kts 269°
2026-05-07 09:02 41.86948 96.08919 34038 ft 463 kts 270°
2026-05-07 09:02 41.86965 96.00303 34048 ft 466 kts 269°
2026-05-07 09:03 41.86927 95.91598 34048 ft 467 kts 269°
2026-05-07 09:03 41.86859 95.82880 34049 ft 467 kts 269°
2026-05-07 09:04 41.86781 95.74170 34048 ft 467 kts 269°
2026-05-07 09:04 41.86699 95.65443 34048 ft 468 kts 269°
2026-05-07 09:05 41.86611 95.56695 34040 ft 469 kts 269°
2026-05-07 09:05 41.86518 95.47992 34029 ft 469 kts 269°
2026-05-07 09:06 41.86416 95.39175 34029 ft 469 kts 269°
2026-05-07 09:06 41.86329 95.30486 34013 ft 468 kts 270°
2026-05-07 09:07 41.87308 95.21898 34013 ft 466 kts 287°
2026-05-07 09:07 41.90204 95.14023 34014 ft 479 kts 304°
2026-05-07 09:08 41.94488 95.07093 34001 ft 482 kts 310°
2026-05-07 09:08 41.98920 95.00408 33993 ft 482 kts 310°
2026-05-07 09:09 42.03398 94.93639 33983 ft 482 kts 310°
2026-05-07 09:09 42.07808 94.86893 33980 ft 483 kts 310°
2026-05-07 09:10 42.12241 94.80072 33969 ft 483 kts 310°
2026-05-07 09:10 42.16661 94.73252 33969 ft 483 kts 310°
2026-05-07 09:11 42.21072 94.66433 33952 ft 481 kts 310°
2026-05-07 09:11 42.25479 94.59601 33959 ft 482 kts 310°
2026-05-07 09:12 42.29858 94.52799 33955 ft 484 kts 310°
2026-05-07 09:12 42.34277 94.45918 33956 ft 483 kts 310°
2026-05-07 09:13 42.38660 94.39080 33951 ft 481 kts 310°
2026-05-07 09:13 42.43010 94.32278 33949 ft 478 kts 310°
2026-05-07 09:14 42.47361 94.25457 33953 ft 479 kts 310°
2026-05-07 09:14 42.51730 94.18592 33953 ft 480 kts 310°
2026-05-07 09:15 42.56073 94.11750 33955 ft 478 kts 310°
2026-05-07 09:15 42.60417 94.04895 33956 ft 479 kts 310°
2026-05-07 09:16 42.64745 93.98047 33972 ft 477 kts 310°
2026-05-07 09:16 42.69032 93.91247 33956 ft 477 kts 310°
2026-05-07 09:17 42.73360 93.84368 33970 ft 478 kts 310°
2026-05-07 09:17 42.77672 93.77497 33954 ft 477 kts 311°
2026-05-07 09:18 42.81965 93.70586 33973 ft 479 kts 308°
2026-05-07 09:18 42.85278 93.62735 33976 ft 478 kts 292°
2026-05-07 09:19 42.87582 93.54211 33972 ft 480 kts 289°
2026-05-07 09:19 42.89699 93.45618 33980 ft 480 kts 289°
2026-05-07 09:20 42.91808 93.36979 33980 ft 481 kts 289°
2026-05-07 09:20 42.93926 93.28364 33970 ft 480 kts 289°
2026-05-07 09:21 42.96054 93.19738 33963 ft 480 kts 289°
2026-05-07 09:21 42.98182 93.11082 33963 ft 479 kts 289°
2026-05-07 09:22 43.00294 93.02458 33985 ft 479 kts 289°
2026-05-07 09:22 43.02395 92.93845 33985 ft 476 kts 290°
2026-05-07 09:23 43.04484 92.85259 33974 ft 477 kts 289°
2026-05-07 09:23 43.06570 92.76643 33973 ft 476 kts 290°
2026-05-07 09:24 43.08631 92.68102 33965 ft 476 kts 289°
2026-05-07 09:24 43.10704 92.59471 33960 ft 478 kts 290°
2026-05-07 09:25 43.12776 92.50812 33961 ft 479 kts 289°
2026-05-07 09:25 43.14843 92.42143 33958 ft 478 kts 289°
2026-05-07 09:26 43.16904 92.33473 33980 ft 479 kts 289°
2026-05-07 09:26 43.18960 92.24779 33973 ft 479 kts 289°
2026-05-07 09:27 43.20990 92.16165 33973 ft 478 kts 289°
2026-05-07 09:28 43.24049 92.03126 33963 ft 478 kts 289°
2026-05-07 09:28 43.25733 91.95916 33966 ft 478 kts 289°
2026-05-07 09:29 43.28086 91.85797 33969 ft 478 kts 289°
2026-05-07 09:29 43.30107 91.77073 33955 ft 479 kts 289°
2026-05-07 09:30 43.32120 91.68348 33956 ft 479 kts 289°
2026-05-07 09:30 43.34129 91.59605 33963 ft 479 kts 289°
2026-05-07 09:31 43.35791 91.52344 33960 ft 479 kts 288°
2026-05-07 09:31 43.37381 91.45375 33963 ft 479 kts 289°
2026-05-07 09:32 43.39368 91.36634 33971 ft 478 kts 289°
2026-05-07 09:32 43.41344 91.27910 33971 ft 479 kts 288°
2026-05-07 09:33 43.43307 91.19212 33991 ft 478 kts 289°
2026-05-07 09:33 43.45268 91.10481 33989 ft 477 kts 288°
2026-05-07 09:34 43.47223 91.01748 34003 ft 476 kts 289°
2026-05-07 09:34 43.49172 90.92999 34001 ft 477 kts 288°
2026-05-07 09:35 43.51101 90.84310 34018 ft 476 kts 288°
2026-05-07 09:35 43.53032 90.75575 34031 ft 477 kts 288°
2026-05-07 09:36 43.54962 90.66808 34034 ft 478 kts 288°
2026-05-07 09:36 43.56886 90.58037 34049 ft 478 kts 288°
2026-05-07 09:37 43.58803 90.49253 34044 ft 478 kts 288°
2026-05-07 09:37 43.60700 90.40522 34054 ft 478 kts 288°
2026-05-07 09:38 43.62603 90.31736 34049 ft 476 kts 288°
2026-05-07 09:38 43.64492 90.22978 34054 ft 475 kts 288°
2026-05-07 09:39 43.66372 90.14222 34064 ft 475 kts 288°
2026-05-07 09:39 43.68250 90.05463 34034 ft 475 kts 288°
2026-05-07 09:40 43.70212 89.96798 34033 ft 475 kts 289°
2026-05-07 09:40 43.72222 89.88091 34034 ft 474 kts 289°
2026-05-07 09:41 43.74207 89.79394 34031 ft 474 kts 288°
2026-05-07 09:41 43.76175 89.70683 34006 ft 474 kts 288°
2026-05-07 09:42 43.78134 89.61953 34012 ft 474 kts 288°
2026-05-07 09:42 43.80084 89.53231 34019 ft 474 kts 288°
2026-05-07 09:43 43.82050 89.44572 34020 ft 474 kts 289°
2026-05-07 09:43 43.84072 89.35886 34001 ft 473 kts 289°
2026-05-07 09:44 43.86082 89.27220 34007 ft 472 kts 289°
2026-05-07 09:44 43.88079 89.18539 34022 ft 472 kts 289°
2026-05-07 09:45 43.90060 89.09871 34017 ft 472 kts 288°
2026-05-07 09:45 43.92036 89.01192 34016 ft 472 kts 288°
2026-05-07 09:46 43.93996 88.92549 34037 ft 472 kts 288°
2026-05-07 09:46 43.95959 88.83856 34037 ft 472 kts 288°
2026-05-07 09:47 43.97989 88.75181 34064 ft 472 kts 290°
2026-05-07 09:47 44.00205 88.66601 34032 ft 472 kts 291°
2026-05-07 09:48 44.02416 88.58072 34057 ft 472 kts 290°
2026-05-07 09:48 44.04605 88.49475 34054 ft 471 kts 290°
2026-05-07 09:49 44.06772 88.40860 34032 ft 472 kts 290°
2026-05-07 09:49 44.08933 88.32225 34035 ft 473 kts 290°
2026-05-07 09:50 44.11088 88.23583 34034 ft 473 kts 290°
2026-05-07 09:50 44.13239 88.14931 33991 ft 473 kts 290°
2026-05-07 09:51 44.15384 88.06272 33990 ft 473 kts 290°
2026-05-07 09:51 44.17935 87.97828 33980 ft 473 kts 301°
2026-05-07 09:52 44.21646 87.90277 33965 ft 473 kts 307°
2026-05-07 09:52 44.25590 87.82946 33958 ft 473 kts 308°
2026-05-07 09:53 44.29566 87.75633 33947 ft 473 kts 307°
2026-05-07 09:53 44.33499 87.68345 33946 ft 473 kts 307°
2026-05-07 09:54 44.37497 87.61020 33946 ft 474 kts 308°
2026-05-07 09:54 44.41524 87.53722 33941 ft 473 kts 308°
2026-05-07 09:55 44.45535 87.46428 33942 ft 473 kts 308°
2026-05-07 09:55 44.49534 87.39115 33944 ft 473 kts 308°
2026-05-07 09:56 44.53529 87.31784 33929 ft 473 kts 308°
2026-05-07 09:56 44.57532 87.24523 33939 ft 473 kts 309°
2026-05-07 09:57 44.61695 87.17381 33933 ft 472 kts 310°
2026-05-07 09:57 44.65875 87.10261 33939 ft 472 kts 310°
2026-05-07 09:58 44.70031 87.03107 33940 ft 472 kts 310°
2026-05-07 09:58 44.74172 86.95927 33939 ft 472 kts 310°
2026-05-07 09:59 44.78315 86.88741 33933 ft 473 kts 310°
2026-05-07 09:59 44.82458 86.81545 33933 ft 473 kts 310°
2026-05-07 10:00 44.86570 86.74349 33934 ft 473 kts 310°
2026-05-07 10:00 44.90648 86.67050 33933 ft 473 kts 310°
2026-05-07 10:01 44.94719 86.59738 33930 ft 473 kts 310°
2026-05-07 10:01 44.98767 86.52472 33925 ft 474 kts 310°
2026-05-07 10:02 45.02850 86.45139 33923 ft 475 kts 310°
2026-05-07 10:02 45.06913 86.37826 33922 ft 475 kts 310°
2026-05-07 10:03 45.10988 86.30470 33913 ft 475 kts 310°
2026-05-07 10:03 45.15061 86.23098 33913 ft 475 kts 310°
2026-05-07 10:04 45.19132 86.15711 33918 ft 475 kts 310°
2026-05-07 10:04 45.23190 86.08327 33914 ft 475 kts 310°
2026-05-07 10:05 45.27231 86.00958 33912 ft 475 kts 309°
2026-05-07 10:05 45.31288 85.93537 33912 ft 475 kts 309°
2026-05-07 10:06 45.35336 85.86115 33908 ft 473 kts 309°
2026-05-07 10:06 45.39367 85.78703 33904 ft 473 kts 309°
2026-05-07 10:07 45.43390 85.71288 33900 ft 473 kts 309°
2026-05-07 10:07 45.47409 85.63861 33900 ft 473 kts 309°
2026-05-07 10:08 45.51422 85.56426 33897 ft 472 kts 309°
2026-05-07 10:08 45.55381 85.49069 33895 ft 469 kts 309°
2026-05-07 10:09 45.59355 85.41668 33894 ft 469 kts 309°
2026-05-07 10:09 45.63319 85.34265 33897 ft 469 kts 309°
2026-05-07 10:10 45.67282 85.26845 33900 ft 470 kts 309°
2026-05-07 10:10 45.71240 85.19427 33903 ft 468 kts 309°
2026-05-07 10:11 45.75198 85.12038 33909 ft 467 kts 309°
2026-05-07 10:11 45.79149 85.04652 33907 ft 467 kts 309°
2026-05-07 10:12 45.83070 84.97299 33915 ft 467 kts 309°
2026-05-07 10:12 45.87025 84.89861 33916 ft 467 kts 309°
2026-05-07 10:13 45.89090 84.85968 33913 ft 467 kts 309°
2026-05-07 10:13 45.93029 84.78528 33917 ft 468 kts 309°
2026-05-07 10:14 45.96969 84.71068 33928 ft 468 kts 309°
2026-05-07 10:14 46.00906 84.63592 33918 ft 468 kts 308°
2026-05-07 10:15 46.04802 84.56175 33935 ft 468 kts 308°
2026-05-07 10:15 46.08701 84.48732 33930 ft 464 kts 308°
2026-05-07 10:16 46.12578 84.41311 33952 ft 463 kts 308°
2026-05-07 10:16 46.16450 84.33881 33945 ft 464 kts 308°
2026-05-07 10:17 46.20336 84.26405 33955 ft 464 kts 308°
2026-05-07 10:17 46.24204 84.18944 33962 ft 464 kts 308°
2026-05-07 10:18 46.27411 84.12745 33963 ft 463 kts 308°
2026-05-07 10:18 46.31248 84.05279 33953 ft 463 kts 308°
2026-05-07 10:19 46.35688 83.96569 33934 ft 463 kts 307°
2026-05-07 10:19 46.39504 83.89074 33942 ft 462 kts 307°
2026-05-07 10:20 46.42698 83.82790 33929 ft 461 kts 307°
2026-05-07 10:20 46.46495 83.75303 33928 ft 460 kts 307°
2026-05-07 10:21 46.50277 83.67828 33931 ft 460 kts 307°
2026-05-07 10:21 46.54037 83.60375 33925 ft 460 kts 307°
2026-05-07 10:22 46.57810 83.52875 33946 ft 460 kts 307°
2026-05-07 10:22 46.61574 83.45375 33934 ft 457 kts 307°
2026-05-07 10:23 46.65317 83.37896 33932 ft 456 kts 307°
2026-05-07 10:23 46.68918 83.30264 33925 ft 457 kts 303°
2026-05-07 10:24 46.72233 83.22358 33946 ft 457 kts 302°
2026-05-07 10:24 46.75525 83.14505 33933 ft 457 kts 302°
2026-05-07 10:25 46.78888 83.06623 33944 ft 457 kts 303°
2026-05-07 10:25 46.82259 82.98769 33944 ft 456 kts 303°
2026-05-07 10:26 46.85438 82.90744 33946 ft 457 kts 295°
2026-05-07 10:26 46.87221 82.81876 33940 ft 460 kts 282°
2026-05-07 10:27 46.88244 82.72580 33949 ft 461 kts 281°
2026-05-07 10:27 46.89150 82.63356 33935 ft 461 kts 280°
2026-05-07 10:28 46.90065 82.54055 33950 ft 462 kts 280°
2026-05-07 10:28 46.90991 82.44740 33948 ft 462 kts 280°
2026-05-07 10:29 46.91911 82.35485 33960 ft 462 kts 280°
2026-05-07 10:29 46.92831 82.26159 33942 ft 462 kts 280°
2026-05-07 10:30 46.94192 82.12188 33937 ft 462 kts 280°
2026-05-07 10:30 46.95088 82.02881 33944 ft 462 kts 280°
2026-05-07 10:31 46.95980 81.93547 33933 ft 462 kts 279°
2026-05-07 10:31 46.96862 81.84206 33932 ft 462 kts 279°
2026-05-07 10:32 46.97723 81.74934 33924 ft 462 kts 279°
2026-05-07 10:32 46.98577 81.65645 33932 ft 459 kts 279°
2026-05-07 10:33 46.99424 81.56365 33932 ft 459 kts 279°
2026-05-07 10:33 47.00258 81.47148 33926 ft 459 kts 279°
2026-05-07 10:34 47.01091 81.37869 33930 ft 459 kts 278°
2026-05-07 10:34 47.01916 81.28580 33931 ft 459 kts 278°
2026-05-07 10:35 47.02734 81.19285 33932 ft 459 kts 278°
2026-05-07 10:35 47.03539 81.10052 33926 ft 459 kts 278°
2026-05-07 10:36 47.04341 81.00773 33935 ft 458 kts 278°
2026-05-07 10:36 47.05138 80.91498 33929 ft 458 kts 278°
2026-05-07 10:37 47.05923 80.82212 33927 ft 458 kts 278°
2026-05-07 10:37 47.06700 80.72928 33931 ft 459 kts 278°
2026-05-07 10:38 47.07467 80.63697 33928 ft 459 kts 278°
2026-05-07 10:38 47.08231 80.54408 33926 ft 459 kts 277°
2026-05-07 10:39 47.08989 80.45108 33917 ft 458 kts 277°
2026-05-07 10:39 47.09737 80.35816 33918 ft 458 kts 277°
2026-05-07 10:40 47.10478 80.26524 33911 ft 458 kts 277°
2026-05-07 10:40 47.11208 80.17279 33919 ft 458 kts 277°
2026-05-07 10:41 47.11934 80.07984 33912 ft 458 kts 277°
2026-05-07 10:41 47.12654 79.98670 33908 ft 460 kts 277°
2026-05-07 10:42 47.13369 79.89310 33915 ft 460 kts 277°
2026-05-07 10:42 47.14082 79.79973 33927 ft 460 kts 276°
2026-05-07 10:43 47.14802 79.70681 33914 ft 460 kts 276°
2026-05-07 10:43 47.15522 79.61314 33920 ft 461 kts 276°
2026-05-07 10:44 47.16232 79.51935 33919 ft 463 kts 276°
2026-05-07 10:44 47.16935 79.42523 33921 ft 463 kts 276°
2026-05-07 10:45 47.17629 79.33118 33927 ft 463 kts 276°
2026-05-07 10:45 47.18312 79.23756 33925 ft 463 kts 276°
2026-05-07 10:46 47.18991 79.14353 33917 ft 462 kts 275°
2026-05-07 10:46 47.19655 79.04951 33932 ft 462 kts 275°
2026-05-07 10:47 47.20290 78.95558 33922 ft 462 kts 275°
2026-05-07 10:47 47.20920 78.86133 33943 ft 462 kts 275°
2026-05-07 10:48 47.21543 78.76780 33929 ft 462 kts 275°
2026-05-07 10:48 47.22161 78.67402 33942 ft 460 kts 275°
2026-05-07 10:49 47.22772 78.58028 33944 ft 459 kts 275°
2026-05-07 10:49 47.23373 78.48662 33946 ft 459 kts 275°
2026-05-07 10:50 47.23966 78.39306 33947 ft 459 kts 275°
2026-05-07 10:50 47.24553 78.29930 33944 ft 460 kts 275°
2026-05-07 10:51 47.25133 78.20533 33949 ft 461 kts 275°
2026-05-07 10:51 47.25705 78.11140 33951 ft 461 kts 275°
2026-05-07 10:52 47.26267 78.01796 33935 ft 461 kts 275°
2026-05-07 10:52 47.26825 77.92384 33932 ft 461 kts 275°
2026-05-07 10:53 47.27374 77.82976 33943 ft 462 kts 275°
2026-05-07 10:53 47.27918 77.73527 33942 ft 462 kts 275°
2026-05-07 10:54 47.28454 77.64097 33946 ft 462 kts 275°
2026-05-07 10:54 47.28983 77.54647 33940 ft 462 kts 274°
2026-05-07 10:55 47.29500 77.45254 33926 ft 463 kts 274°
2026-05-07 10:55 47.30014 77.35786 33937 ft 464 kts 274°
2026-05-07 10:56 47.30521 77.26289 33950 ft 464 kts 275°
2026-05-07 10:56 47.31021 77.16781 33942 ft 464 kts 275°
2026-05-07 10:57 47.31510 77.07347 33930 ft 464 kts 275°
2026-05-07 10:57 47.32194 76.97875 33924 ft 464 kts 278°
2026-05-07 10:58 47.33247 76.88470 33916 ft 464 kts 279°
2026-05-07 10:58 47.34281 76.79128 33921 ft 464 kts 279°
2026-05-07 10:59 47.35256 76.69654 33921 ft 464 kts 278°
2026-05-07 10:59 47.36189 76.60231 33917 ft 464 kts 278°
2026-05-07 11:00 47.37108 76.50839 33921 ft 466 kts 278°
2026-05-07 11:00 47.38029 76.41371 33922 ft 466 kts 278°
2026-05-07 11:01 47.38947 76.31876 33927 ft 467 kts 278°
2026-05-07 11:01 47.39855 76.22390 33943 ft 466 kts 278°
2026-05-07 11:02 47.40750 76.12972 33936 ft 461 kts 277°
2026-05-07 11:02 47.41630 76.03619 33936 ft 460 kts 277°
2026-05-07 11:03 47.42502 75.94257 33935 ft 460 kts 277°
2026-05-07 11:03 47.43361 75.84954 33943 ft 460 kts 277°
2026-05-07 11:04 47.44218 75.75587 33930 ft 460 kts 277°
2026-05-07 11:04 47.45069 75.66203 33939 ft 460 kts 276°
2026-05-07 11:05 47.45914 75.56804 33933 ft 461 kts 276°
2026-05-07 11:05 47.46611 75.48974 33946 ft 461 kts 276°
2026-05-07 11:06 47.47436 75.39632 33948 ft 461 kts 276°
2026-05-07 11:06 47.48259 75.30222 33947 ft 461 kts 276°
2026-05-07 11:07 47.49073 75.20820 33955 ft 459 kts 276°
2026-05-07 11:07 47.49876 75.11465 33949 ft 457 kts 276°
2026-05-07 11:08 47.50667 75.02149 33964 ft 457 kts 276°
2026-05-07 11:08 47.51447 74.92863 33959 ft 457 kts 276°
2026-05-07 11:09 47.52224 74.83528 33970 ft 457 kts 275°
2026-05-07 11:09 47.52994 74.74184 33971 ft 457 kts 275°
2026-05-07 11:10 47.53756 74.64855 33979 ft 456 kts 275°
2026-05-07 11:10 47.54510 74.55513 33972 ft 456 kts 275°
2026-05-07 11:11 47.55251 74.46242 33976 ft 456 kts 275°
2026-05-07 11:11 47.55989 74.36909 33962 ft 456 kts 275°
2026-05-07 11:12 47.56719 74.27569 33970 ft 457 kts 275°
2026-05-07 11:12 47.57444 74.18218 33963 ft 456 kts 275°
2026-05-07 11:13 47.58159 74.08876 33957 ft 455 kts 275°
2026-05-07 11:13 47.58860 73.99625 33959 ft 455 kts 275°
2026-05-07 11:14 47.59559 73.90296 33958 ft 455 kts 275°
2026-05-07 11:14 47.60251 73.80948 33950 ft 456 kts 274°
2026-05-07 11:15 47.60937 73.71594 33955 ft 456 kts 274°
2026-05-07 11:15 47.61610 73.62293 33953 ft 456 kts 274°
2026-05-07 11:16 47.62280 73.52938 33968 ft 456 kts 274°
2026-05-07 11:16 47.62943 73.43579 33958 ft 456 kts 274°
2026-05-07 11:17 47.63598 73.34201 33955 ft 457 kts 274°
2026-05-07 11:17 47.64247 73.24821 33959 ft 457 kts 273°
2026-05-07 11:18 47.64887 73.15454 33955 ft 456 kts 273°
2026-05-07 11:18 47.65514 73.06144 33955 ft 456 kts 273°
2026-05-07 11:19 47.66138 72.96769 33957 ft 456 kts 273°
2026-05-07 11:19 47.66755 72.87396 33955 ft 457 kts 273°
2026-05-07 11:20 47.67365 72.78005 33955 ft 457 kts 272°
2026-05-07 11:20 47.67963 72.68675 33954 ft 457 kts 272°
2026-05-07 11:21 47.68558 72.59285 33955 ft 457 kts 272°
2026-05-07 11:21 47.69146 72.49878 33956 ft 457 kts 272°
2026-05-07 11:22 47.69725 72.40470 33950 ft 457 kts 272°
2026-05-07 11:22 47.70297 72.31066 33949 ft 457 kts 272°
2026-05-07 11:23 47.70861 72.21667 33947 ft 456 kts 272°
2026-05-07 11:23 47.71412 72.12355 33947 ft 455 kts 272°
2026-05-07 11:24 47.71959 72.02969 33945 ft 456 kts 272°
2026-05-07 11:24 47.72499 71.93566 33944 ft 458 kts 272°
2026-05-07 11:25 47.73034 71.84134 33933 ft 458 kts 272°
2026-05-07 11:25 47.73510 71.74740 33933 ft 458 kts 270°
2026-05-07 11:26 47.73878 71.65299 33930 ft 457 kts 270°
2026-05-07 11:26 47.74238 71.55866 33931 ft 458 kts 271°
2026-05-07 11:27 47.74611 71.46384 33928 ft 460 kts 271°
2026-05-07 11:27 47.74985 71.36889 33928 ft 460 kts 271°
2026-05-07 11:28 47.75348 71.27482 33925 ft 459 kts 271°
2026-05-07 11:28 47.75706 71.17992 33926 ft 459 kts 270°
2026-05-07 11:29 47.76054 71.08511 33923 ft 459 kts 271°
2026-05-07 11:29 47.76394 70.99035 33923 ft 459 kts 271°
2026-05-07 11:30 47.76728 70.89547 33923 ft 459 kts 271°
2026-05-07 11:30 47.77054 70.80051 33922 ft 459 kts 271°
2026-05-07 11:31 47.77369 70.70637 33919 ft 459 kts 271°
2026-05-07 11:31 47.77678 70.61158 33919 ft 458 kts 271°
2026-05-07 11:32 47.78126 70.46981 33917 ft 457 kts 271°
2026-05-07 11:33 47.78414 70.37577 33915 ft 457 kts 271°
2026-05-07 11:33 47.78695 70.28122 33916 ft 457 kts 271°
2026-05-07 11:34 47.78968 70.18676 33917 ft 456 kts 271°
2026-05-07 11:34 47.79233 70.09287 33914 ft 453 kts 271°
2026-05-07 11:35 47.79489 69.99918 33915 ft 452 kts 270°
2026-05-07 11:35 47.79736 69.90571 33914 ft 452 kts 270°
2026-05-07 11:36 47.79976 69.81217 33912 ft 452 kts 270°
2026-05-07 11:36 47.80207 69.71931 33910 ft 450 kts 270°
2026-05-07 11:37 47.80431 69.62656 33911 ft 448 kts 270°
2026-05-07 11:37 47.80646 69.53372 33915 ft 448 kts 270°
2026-05-07 11:38 47.80853 69.44167 33913 ft 448 kts 270°
2026-05-07 11:38 47.81053 69.34912 33910 ft 448 kts 270°
2026-05-07 11:39 47.81246 69.25654 33914 ft 446 kts 270°
2026-05-07 11:39 47.81431 69.16437 33916 ft 444 kts 270°
2026-05-07 11:40 47.81607 69.07253 33917 ft 444 kts 270°
2026-05-07 11:40 47.81775 68.98104 33913 ft 444 kts 270°
2026-05-07 11:41 47.81938 68.88901 33917 ft 444 kts 269°
2026-05-07 11:41 47.81841 68.79752 33919 ft 441 kts 263°
2026-05-07 11:42 47.81108 68.70689 33917 ft 440 kts 261°
2026-05-07 11:42 47.80283 68.61666 33919 ft 440 kts 261°
2026-05-07 11:43 47.79442 68.52636 33921 ft 440 kts 261°
2026-05-07 11:43 47.78609 68.43677 33920 ft 440 kts 261°
2026-05-07 11:44 47.77767 68.34638 33909 ft 440 kts 261°
2026-05-07 11:44 47.76921 68.25616 33910 ft 439 kts 261°
2026-05-07 11:45 47.76075 68.16682 33913 ft 439 kts 261°
2026-05-07 11:45 47.75213 68.07664 33912 ft 440 kts 261°
2026-05-07 11:46 47.74346 67.98672 33911 ft 440 kts 261°
2026-05-07 11:46 47.73472 67.89673 33913 ft 440 kts 261°
2026-05-07 11:47 47.72597 67.80738 33911 ft 440 kts 261°
2026-05-07 11:47 47.71663 67.71756 33911 ft 439 kts 258°
2026-05-07 11:48 47.70327 67.62897 33913 ft 439 kts 256°
2026-05-07 11:48 47.68905 67.54084 33912 ft 439 kts 256°
2026-05-07 11:49 47.67532 67.45237 33916 ft 440 kts 256°
2026-05-07 11:49 47.66198 67.36433 33916 ft 440 kts 256°
2026-05-07 11:50 47.64858 67.27571 33921 ft 440 kts 256°
2026-05-07 11:50 47.63510 67.18719 33914 ft 440 kts 256°
2026-05-07 11:51 47.62151 67.09860 33925 ft 441 kts 256°
2026-05-07 11:51 47.60781 67.00994 33924 ft 441 kts 256°
2026-05-07 11:52 47.59414 66.92187 33933 ft 441 kts 256°
2026-05-07 11:52 47.58034 66.83343 33933 ft 441 kts 256°
2026-05-07 11:53 47.56644 66.74479 33942 ft 443 kts 255°
2026-05-07 11:53 47.55472 66.67072 33939 ft 444 kts 255°
2026-05-07 11:54 47.53766 66.56738 33936 ft 444 kts 254°
2026-05-07 11:54 47.52522 66.49290 33936 ft 445 kts 254°
2026-05-07 11:55 47.51050 66.40457 33930 ft 445 kts 254°
2026-05-07 11:55 47.49565 66.31560 33930 ft 447 kts 253°
2026-05-07 11:56 47.48064 66.22613 33929 ft 448 kts 253°
2026-05-07 11:56 47.46559 66.13686 33927 ft 448 kts 253°
2026-05-07 11:57 47.45043 66.04739 33925 ft 448 kts 253°
2026-05-07 11:57 47.43532 65.95868 33921 ft 447 kts 253°
2026-05-07 11:58 47.42011 65.86986 33923 ft 445 kts 253°
2026-05-07 11:58 47.40508 65.78106 33923 ft 446 kts 253°
2026-05-07 11:59 47.39045 65.69198 33917 ft 446 kts 253°
2026-05-07 11:59 47.37588 65.60358 33921 ft 446 kts 253°
2026-05-07 12:00 47.36109 65.51476 33907 ft 444 kts 253°
2026-05-07 12:00 47.34630 65.42649 33911 ft 443 kts 253°
2026-05-07 12:01 47.33142 65.33838 33907 ft 443 kts 253°
2026-05-07 12:01 47.31645 65.25015 33904 ft 443 kts 253°
2026-05-07 12:02 47.30139 65.16178 33901 ft 445 kts 253°
2026-05-07 12:02 47.28623 65.07330 33897 ft 446 kts 253°
2026-05-07 12:03 47.27110 64.98537 33896 ft 446 kts 252°
2026-05-07 12:03 47.25580 64.89687 33889 ft 445 kts 252°
2026-05-07 12:04 47.24043 64.80847 33907 ft 446 kts 252°
2026-05-07 12:04 47.22497 64.72003 33891 ft 445 kts 252°
2026-05-07 12:05 47.20948 64.63181 33890 ft 445 kts 252°
2026-05-07 12:05 47.19403 64.54422 33888 ft 445 kts 252°
2026-05-07 12:06 47.17843 64.45605 33874 ft 445 kts 252°
2026-05-07 12:06 47.16280 64.36795 33881 ft 446 kts 252°
2026-05-07 12:07 47.14706 64.27975 33881 ft 446 kts 252°
2026-05-07 12:07 47.13135 64.19209 33878 ft 446 kts 252°
2026-05-07 12:08 47.11547 64.10395 33871 ft 446 kts 252°
2026-05-07 12:08 47.09952 64.01583 33874 ft 446 kts 252°
2026-05-07 12:09 47.08353 63.92793 33873 ft 446 kts 252°
2026-05-07 12:09 47.06744 63.83992 33874 ft 446 kts 252°
2026-05-07 12:10 47.05132 63.75213 33868 ft 446 kts 252°
2026-05-07 12:10 47.03513 63.66442 33870 ft 446 kts 252°
2026-05-07 12:11 47.01888 63.57678 33867 ft 446 kts 252°
2026-05-07 12:11 47.00263 63.48953 33866 ft 446 kts 251°
2026-05-07 12:12 46.98621 63.40175 33864 ft 446 kts 251°
2026-05-07 12:12 46.96971 63.31401 33865 ft 446 kts 251°
2026-05-07 12:13 46.95313 63.22628 33867 ft 447 kts 251°
2026-05-07 12:13 46.93659 63.13915 33862 ft 447 kts 251°
2026-05-07 12:14 46.91988 63.05148 33861 ft 447 kts 251°
2026-05-07 12:14 46.90307 62.96375 33852 ft 447 kts 251°
2026-05-07 12:15 46.88621 62.87611 33876 ft 448 kts 251°
2026-05-07 12:15 46.86923 62.78831 33849 ft 448 kts 251°
2026-05-07 12:16 46.85232 62.70121 33851 ft 449 kts 251°
2026-05-07 12:16 46.83521 62.61355 33851 ft 448 kts 251°
2026-05-07 12:17 46.81805 62.52569 33845 ft 448 kts 251°
2026-05-07 12:17 46.80084 62.43823 33850 ft 447 kts 250°
2026-05-07 12:18 46.78371 62.35167 33843 ft 446 kts 250°
2026-05-07 12:18 46.76639 62.26457 33844 ft 446 kts 250°
2026-05-07 12:19 46.74905 62.17763 33846 ft 446 kts 250°
2026-05-07 12:19 46.73163 62.09068 33845 ft 446 kts 250°
2026-05-07 12:20 46.71422 62.00408 33845 ft 444 kts 250°
2026-05-07 12:20 46.69692 61.91850 33851 ft 443 kts 250°
2026-05-07 12:21 46.67941 61.83222 33852 ft 443 kts 250°
2026-05-07 12:21 46.66182 61.74600 33879 ft 443 kts 250°
2026-05-07 12:22 46.64426 61.66018 33859 ft 442 kts 250°
2026-05-07 12:22 46.62667 61.57459 33856 ft 441 kts 249°
2026-05-07 12:23 46.60910 61.48950 33855 ft 441 kts 249°
2026-05-07 12:23 46.59140 61.40416 33855 ft 441 kts 249°
2026-05-07 12:24 46.57360 61.31871 33861 ft 442 kts 249°
2026-05-07 12:24 46.55571 61.23314 33863 ft 442 kts 249°
2026-05-07 12:25 46.53787 61.14817 33868 ft 442 kts 249°
2026-05-07 12:25 46.51985 61.06271 33865 ft 442 kts 249°
2026-05-07 12:26 46.50178 60.97739 33872 ft 443 kts 249°
2026-05-07 12:26 46.48355 60.89169 33866 ft 445 kts 249°
2026-05-07 12:27 46.46520 60.80578 33864 ft 445 kts 249°
2026-05-07 12:27 46.44680 60.71992 33867 ft 445 kts 249°
2026-05-07 12:28 46.42845 60.63467 33867 ft 445 kts 249°
2026-05-07 12:28 46.40991 60.54896 33869 ft 444 kts 249°
2026-05-07 12:29 46.39137 60.46353 33870 ft 443 kts 249°
2026-05-07 12:29 46.37288 60.37872 33869 ft 444 kts 249°
2026-05-07 12:30 46.35413 60.29309 33863 ft 444 kts 249°
2026-05-07 12:30 46.33556 60.20858 33870 ft 443 kts 249°
2026-05-07 12:31 46.31674 60.12329 33878 ft 443 kts 249°
2026-05-07 12:31 46.29793 60.03841 33875 ft 443 kts 249°
2026-05-07 12:32 46.27915 59.95399 33880 ft 443 kts 249°
2026-05-07 12:32 46.26022 59.86920 33893 ft 443 kts 249°
2026-05-07 12:33 46.23177 59.74245 33883 ft 441 kts 249°
2026-05-07 12:33 46.21277 59.65815 33883 ft 441 kts 249°
2026-05-07 12:34 46.19355 59.57402 33889 ft 441 kts 249°
2026-05-07 12:34 46.17426 59.48998 33893 ft 441 kts 249°
2026-05-07 12:35 46.15505 59.40643 33895 ft 441 kts 249°
2026-05-07 12:35 46.13568 59.32244 33898 ft 441 kts 249°
2026-05-07 12:36 46.11617 59.23821 33896 ft 444 kts 248°
2026-05-07 12:36 46.09652 59.15363 33919 ft 444 kts 249°
2026-05-07 12:37 46.07692 59.06966 33905 ft 446 kts 249°
2026-05-07 12:37 46.05707 58.98487 33907 ft 446 kts 248°
2026-05-07 12:38 46.03719 58.90031 33909 ft 446 kts 248°
2026-05-07 12:38 46.01724 58.81578 33910 ft 446 kts 248°
2026-05-07 12:39 45.99723 58.73135 33906 ft 446 kts 248°
2026-05-07 12:39 45.97731 58.64756 33917 ft 445 kts 248°
2026-05-07 12:40 45.95714 58.56311 33920 ft 445 kts 248°
2026-05-07 12:40 45.93696 58.47891 33920 ft 445 kts 248°
2026-05-07 12:41 45.91671 58.39473 33930 ft 446 kts 248°
2026-05-07 12:41 45.89639 58.31059 33922 ft 446 kts 248°
2026-05-07 12:42 45.87608 58.22680 33924 ft 446 kts 248°
2026-05-07 12:42 45.85907 58.15685 33928 ft 446 kts 248°
2026-05-07 12:43 45.83856 58.07283 33937 ft 446 kts 248°
2026-05-07 12:43 45.81796 57.98875 33932 ft 446 kts 248°
2026-05-07 12:44 45.79730 57.90471 33927 ft 446 kts 248°
2026-05-07 12:44 45.77323 57.80723 33928 ft 446 kts 248°
2026-05-07 12:45 45.75597 57.73756 33930 ft 446 kts 248°
2026-05-07 12:45 45.73513 57.65375 33929 ft 446 kts 248°
2026-05-07 12:46 45.71421 57.56989 33926 ft 446 kts 248°
2026-05-07 12:46 45.69339 57.48679 33925 ft 447 kts 248°
2026-05-07 12:47 45.67234 57.40311 33934 ft 446 kts 248°
2026-05-07 12:47 45.65126 57.31958 33931 ft 447 kts 248°
2026-05-07 12:48 45.63010 57.23600 33925 ft 447 kts 248°
2026-05-07 12:48 45.60884 57.15235 33924 ft 447 kts 248°
2026-05-07 12:49 45.58768 57.06940 33927 ft 447 kts 248°
2026-05-07 12:49 45.56632 56.98598 33932 ft 447 kts 248°
2026-05-07 12:50 45.54485 56.90242 33926 ft 448 kts 248°
2026-05-07 12:50 45.52337 56.81910 33928 ft 448 kts 248°
2026-05-07 12:51 45.50182 56.73585 33930 ft 447 kts 248°
2026-05-07 12:51 45.48031 56.65300 33930 ft 447 kts 248°
2026-05-07 12:52 45.45862 56.56981 33930 ft 447 kts 248°
2026-05-07 12:52 45.43691 56.48678 33932 ft 447 kts 248°
2026-05-07 12:53 45.41511 56.40374 33931 ft 447 kts 248°
2026-05-07 12:53 45.39325 56.32076 33935 ft 447 kts 248°
2026-05-07 12:54 45.37138 56.23803 33933 ft 447 kts 248°
2026-05-07 12:54 45.34956 56.15576 33935 ft 446 kts 248°
2026-05-07 12:55 45.32758 56.07318 33935 ft 446 kts 248°
2026-05-07 12:55 45.30551 55.99058 33955 ft 447 kts 248°
2026-05-07 12:56 45.28343 55.90822 33963 ft 446 kts 248°
2026-05-07 12:56 45.26133 55.82604 33938 ft 449 kts 248°
2026-05-07 12:57 45.23896 55.74317 33938 ft 449 kts 248°
2026-05-07 12:57 45.21650 55.66022 33938 ft 449 kts 248°
2026-05-07 12:58 45.19417 55.57806 33938 ft 449 kts 248°
2026-05-07 12:58 45.17160 55.49531 33941 ft 449 kts 248°
2026-05-07 12:59 45.14902 55.41278 33941 ft 449 kts 248°
2026-05-07 12:59 45.12638 55.33034 33944 ft 449 kts 248°
2026-05-07 13:00 45.10358 55.24789 33943 ft 449 kts 246°
2026-05-07 13:00 45.07312 55.17188 33947 ft 448 kts 232°
2026-05-07 13:01 45.02990 55.10815 33944 ft 449 kts 224°
2026-05-07 13:01 44.98375 55.04841 33923 ft 449 kts 224°
2026-05-07 13:02 44.93749 54.98936 33946 ft 447 kts 224°
2026-05-07 13:02 44.89147 54.93027 33949 ft 447 kts 224°
2026-05-07 13:03 44.84588 54.87155 33951 ft 447 kts 224°
2026-05-07 13:03 44.79992 54.81243 33958 ft 447 kts 224°
2026-05-07 13:04 44.75398 54.75349 33955 ft 446 kts 224°
2026-05-07 13:04 44.70798 54.69461 33955 ft 446 kts 224°
2026-05-07 13:05 44.66357 54.63444 33958 ft 445 kts 231°
2026-05-07 13:05 44.62646 54.56502 33962 ft 444 kts 236°
2026-05-07 13:06 44.59118 54.49412 33966 ft 443 kts 236°
2026-05-07 13:06 44.55595 54.42287 33966 ft 443 kts 236°
2026-05-07 13:07 44.52086 54.35243 33971 ft 443 kts 236°
2026-05-07 13:07 44.48541 54.28168 33971 ft 443 kts 236°
2026-05-07 13:08 44.44995 54.21114 33977 ft 442 kts 236°
2026-05-07 13:08 44.41457 54.14092 33978 ft 441 kts 236°
2026-05-07 13:09 44.37908 54.07063 33979 ft 441 kts 236°
2026-05-07 13:09 44.34381 54.00094 33981 ft 442 kts 235°
2026-05-07 13:10 44.30817 53.93071 33980 ft 442 kts 235°
2026-05-07 13:10 44.27260 53.86078 33977 ft 442 kts 235°
2026-05-07 13:11 44.23696 53.79088 33983 ft 442 kts 235°
2026-05-07 13:11 44.20146 53.72143 33984 ft 442 kts 235°
2026-05-07 13:12 44.16574 53.65170 33984 ft 442 kts 235°
2026-05-07 13:12 44.12992 53.58195 33991 ft 442 kts 235°
2026-05-07 13:13 44.09411 53.51238 33987 ft 442 kts 235°
2026-05-07 13:13 44.05814 53.44268 33990 ft 443 kts 235°
2026-05-07 13:14 44.02211 53.37302 33985 ft 443 kts 235°
2026-05-07 13:14 43.98627 53.30389 33990 ft 443 kts 235°
2026-05-07 13:15 43.95017 53.23443 33988 ft 443 kts 235°
2026-05-07 13:15 43.91405 53.16510 33987 ft 443 kts 234°
2026-05-07 13:16 43.87789 53.09584 33997 ft 443 kts 234°
2026-05-07 13:16 43.84175 53.02683 33992 ft 443 kts 234°
2026-05-07 13:17 43.80578 52.95832 34001 ft 442 kts 234°
2026-05-07 13:17 43.76956 52.88950 34005 ft 442 kts 234°
2026-05-07 13:18 43.73325 52.82066 34003 ft 442 kts 234°
2026-05-07 13:18 43.69699 52.75208 33998 ft 442 kts 234°
2026-05-07 13:19 43.66088 52.68392 33999 ft 442 kts 234°
2026-05-07 13:19 43.62449 52.61542 34009 ft 440 kts 234°
2026-05-07 13:20 43.58804 52.54731 34012 ft 440 kts 234°
2026-05-07 13:20 43.55186 52.47986 34019 ft 440 kts 234°
2026-05-07 13:21 43.51536 52.41191 34020 ft 440 kts 234°
2026-05-07 13:21 43.47885 52.34407 34025 ft 440 kts 234°
2026-05-07 13:22 43.44242 52.27652 34029 ft 440 kts 234°
2026-05-07 13:22 43.40610 52.20934 34030 ft 439 kts 234°
2026-05-07 13:23 43.36955 52.14188 34034 ft 439 kts 234°
2026-05-07 13:23 43.33308 52.07473 34040 ft 439 kts 234°
2026-05-07 13:24 43.29646 52.00745 34040 ft 439 kts 233°
2026-05-07 13:24 43.25991 51.94045 34041 ft 440 kts 233°
2026-05-07 13:25 43.22314 51.87321 34044 ft 440 kts 233°
2026-05-07 13:25 43.18638 51.80614 34045 ft 440 kts 233°
2026-05-07 13:26 43.14947 51.73894 34051 ft 440 kts 233°
2026-05-07 13:26 43.11284 51.67241 34047 ft 441 kts 233°
2026-05-07 13:27 43.07591 51.60548 34044 ft 441 kts 233°
2026-05-07 13:27 43.03893 51.53861 34050 ft 441 kts 233°
2026-05-07 13:28 43.00183 51.47168 34052 ft 441 kts 233°
2026-05-07 13:28 42.96464 51.40473 34050 ft 442 kts 233°
2026-05-07 13:29 42.92740 51.33785 34053 ft 442 kts 233°
2026-05-07 13:29 42.89014 51.27108 34053 ft 442 kts 233°
2026-05-07 13:30 42.85309 51.20484 34050 ft 441 kts 233°
2026-05-07 13:30 42.81593 51.13855 34062 ft 439 kts 233°
2026-05-07 13:31 42.77877 51.07241 34064 ft 439 kts 233°
2026-05-07 13:31 42.74791 51.01759 34069 ft 439 kts 233°
2026-05-07 13:32 42.71064 50.95151 34064 ft 439 kts 233°
2026-05-07 13:32 42.67334 50.88553 34066 ft 440 kts 233°
2026-05-07 13:33 42.62998 50.80902 34068 ft 440 kts 233°
2026-05-07 13:33 42.59890 50.75430 34069 ft 439 kts 233°
2026-05-07 13:34 42.54284 50.65585 34073 ft 439 kts 233°
2026-05-07 13:35 42.50545 50.59036 34070 ft 439 kts 233°
2026-05-07 13:35 42.46800 50.52491 34072 ft 439 kts 233°
2026-05-07 13:36 42.43072 50.45989 34066 ft 439 kts 233°
2026-05-07 13:36 42.39461 50.39295 34066 ft 439 kts 235°
2026-05-07 13:37 42.35954 50.32523 34073 ft 439 kts 235°
2026-05-07 13:37 42.32429 50.25790 34069 ft 439 kts 235°
2026-05-07 13:38 42.28886 50.19106 34070 ft 439 kts 235°
2026-05-07 13:38 42.25313 50.12401 34069 ft 439 kts 235°
2026-05-07 13:39 42.21728 50.05688 34072 ft 439 kts 235°
2026-05-07 13:39 42.18171 49.99039 34072 ft 439 kts 235°
2026-05-07 13:40 42.14586 49.92353 34075 ft 439 kts 235°
2026-05-07 13:40 42.11000 49.85677 34072 ft 439 kts 234°
2026-05-07 13:41 42.07415 49.79021 34072 ft 439 kts 235°
2026-05-07 13:41 42.03852 49.72417 34073 ft 439 kts 235°
2026-05-07 13:42 42.00259 49.65774 34075 ft 439 kts 234°
2026-05-07 13:42 41.96661 49.59136 34076 ft 438 kts 234°
2026-05-07 13:43 41.93090 49.52562 34077 ft 435 kts 234°
2026-05-07 13:43 41.89524 49.46012 34077 ft 434 kts 234°
2026-05-07 13:44 41.85956 49.39470 34081 ft 434 kts 234°
2026-05-07 13:44 41.82385 49.32940 34081 ft 434 kts 234°
2026-05-07 13:45 41.78890 49.26418 34079 ft 433 kts 236°
2026-05-07 13:45 41.75574 49.19671 34077 ft 433 kts 237°
2026-05-07 13:46 41.72272 49.12905 34072 ft 433 kts 237°
2026-05-07 13:46 41.68944 49.06192 34081 ft 432 kts 237°
2026-05-07 13:47 41.65625 48.99564 34082 ft 432 kts 237°
2026-05-07 13:47 41.62277 48.92901 34083 ft 432 kts 237°
2026-05-07 13:48 41.58914 48.86220 34083 ft 432 kts 237°
2026-05-07 13:48 41.55577 48.79600 34085 ft 432 kts 236°
2026-05-07 13:49 41.52214 48.72944 34088 ft 432 kts 236°
2026-05-07 13:49 41.48690 48.66454 34094 ft 432 kts 233°
2026-05-07 13:50 41.45042 48.60077 34094 ft 432 kts 233°
2026-05-07 13:50 41.41420 48.53695 34099 ft 432 kts 234°
2026-05-07 13:51 41.37901 48.47267 34107 ft 432 kts 235°
2026-05-07 13:51 41.34386 48.40771 34108 ft 431 kts 235°
2026-05-07 13:52 41.30869 48.34304 34117 ft 431 kts 234°
2026-05-07 13:52 41.27344 48.27860 34125 ft 431 kts 234°
2026-05-07 13:53 41.23830 48.21457 34124 ft 431 kts 234°
2026-05-07 13:53 41.20286 48.15010 34130 ft 431 kts 234°
2026-05-07 13:54 41.16740 48.08568 34126 ft 430 kts 234°
2026-05-07 13:54 41.13819 48.01675 34133 ft 430 kts 247°
2026-05-07 13:55 41.12417 47.93998 34130 ft 435 kts 262°
2026-05-07 13:55 41.12781 47.85918 34129 ft 443 kts 275°
2026-05-07 13:56 41.14007 47.77881 34124 ft 445 kts 277°
2026-05-07 13:56 41.15316 47.69835 34144 ft 445 kts 277°
2026-05-07 13:57 41.16593 47.61786 34130 ft 449 kts 277°
2026-05-07 13:57 41.17851 47.53662 34128 ft 449 kts 277°
2026-05-07 13:58 41.19100 47.45519 34132 ft 449 kts 277°
2026-05-07 13:58 41.20335 47.37439 34127 ft 449 kts 276°
2026-05-07 13:59 41.21571 47.29321 34130 ft 449 kts 277°
2026-05-07 13:59 41.22803 47.21173 34128 ft 450 kts 277°
2026-05-07 14:00 41.24032 47.13010 34122 ft 450 kts 276°
2026-05-07 14:00 41.25246 47.04912 34127 ft 449 kts 276°
2026-05-07 14:01 41.26461 46.96758 34143 ft 450 kts 277°
2026-05-07 14:01 41.27674 46.88578 34123 ft 451 kts 277°
2026-05-07 14:02 41.28886 46.80364 34112 ft 452 kts 277°
2026-05-07 14:02 41.30088 46.72166 34115 ft 452 kts 276°
2026-05-07 14:03 41.31242 46.63985 34117 ft 451 kts 276°
2026-05-07 14:03 41.32381 46.55762 34116 ft 452 kts 276°
2026-05-07 14:04 41.33519 46.47539 34104 ft 453 kts 276°
2026-05-07 14:04 41.34654 46.39338 34116 ft 453 kts 276°
2026-05-07 14:05 41.35790 46.31092 34117 ft 453 kts 276°
2026-05-07 14:05 41.36919 46.22847 34137 ft 453 kts 276°
2026-05-07 14:06 41.39226 46.05842 34123 ft 455 kts 276°
2026-05-07 14:06 41.43667 45.72555 34119 ft 457 kts 276°
2026-05-07 14:07 41.46863 45.48119 34112 ft 457 kts 276°
2026-05-07 14:07 41.48933 45.31380 34116 ft 460 kts 273°
2026-05-07 14:08 41.50200 45.14395 34121 ft 459 kts 272°
2026-05-07 14:08 41.51528 44.97378 34130 ft 463 kts 273°
2026-05-07 14:09 41.52874 44.80391 34129 ft 464 kts 273°
2026-05-07 14:09 41.54202 44.63237 34139 ft 464 kts 273°
2026-05-07 14:10 41.55503 44.46066 34140 ft 464 kts 272°
2026-05-07 14:10 41.56779 44.28897 34151 ft 464 kts 272°
2026-05-07 14:11 41.57257 44.11673 34163 ft 465 kts 268°
2026-05-07 14:11 41.57275 43.94378 34174 ft 466 kts 268°
2026-05-07 14:12 41.57279 43.77172 34187 ft 466 kts 268°
2026-05-07 14:12 41.57263 43.59777 34177 ft 469 kts 268°
2026-05-07 14:13 41.57221 43.42373 34173 ft 469 kts 268°
2026-05-07 14:13 41.57151 43.24932 34175 ft 471 kts 268°
2026-05-07 14:14 41.57054 43.07355 34173 ft 473 kts 268°
2026-05-07 14:14 41.56931 42.89763 34172 ft 473 kts 268°
2026-05-07 14:15 41.56779 42.72152 34177 ft 476 kts 268°
2026-05-07 14:15 41.56601 42.54430 34180 ft 477 kts 268°
2026-05-07 14:16 41.56285 42.28049 34181 ft 480 kts 268°
2026-05-07 14:16 41.55764 41.92598 34198 ft 481 kts 268°
2026-05-07 14:17 41.55127 41.56735 34177 ft 485 kts 268°
2026-05-07 14:17 41.56279 41.20785 34204 ft 487 kts 274°
2026-05-07 14:18 41.58280 40.84647 34179 ft 489 kts 274°
2026-05-07 14:18 41.60169 40.48356 34192 ft 490 kts 274°
2026-05-07 14:19 41.61933 40.12018 34187 ft 489 kts 274°
2026-05-07 14:19 41.63577 39.75918 34193 ft 489 kts 274°
2026-05-07 14:20 41.65120 39.39582 34193 ft 489 kts 274°
2026-05-07 14:20 41.66542 39.03147 34184 ft 490 kts 274°
2026-05-07 14:21 41.67852 38.66720 34183 ft 490 kts 274°
2026-05-07 14:21 41.69047 38.30249 34184 ft 490 kts 275°
2026-05-07 14:22 41.70125 37.93834 34175 ft 489 kts 274°
2026-05-07 14:22 41.71085 37.57768 34173 ft 485 kts 274°
2026-05-07 14:23 41.71788 37.27535 34168 ft 485 kts 274°
2026-05-07 14:23 41.72525 36.91810 34167 ft 481 kts 274°
2026-05-07 14:24 41.73153 36.56012 34161 ft 480 kts 273°
2026-05-07 14:24 41.73666 36.20447 34168 ft 477 kts 274°
2026-05-07 14:25 41.74066 35.85006 34165 ft 473 kts 274°
2026-05-07 14:25 41.74357 35.49800 34149 ft 470 kts 275°
2026-05-07 14:26 41.74542 35.14845 34138 ft 468 kts 274°
2026-05-07 14:26 41.74619 34.79900 34101 ft 469 kts 274°
2026-05-07 14:27 41.77782 34.45747 34097 ft 460 kts 290°
2026-05-07 14:27 41.85426 34.13157 34117 ft 461 kts 290°
2026-05-07 14:28 41.92958 33.80279 34138 ft 461 kts 290°
2026-05-07 14:28 41.99721 33.46988 34139 ft 461 kts 288°
2026-05-07 14:29 42.06051 33.13598 34131 ft 459 kts 288°
2026-05-07 14:29 42.12682 32.80675 34129 ft 458 kts 289°
2026-05-07 14:30 42.19358 32.47527 34138 ft 457 kts 289°
2026-05-07 14:30 42.24077 32.23674 34137 ft 457 kts 289°
2026-05-07 14:31 42.25708 32.15382 34130 ft 457 kts 289°
2026-05-07 14:31 42.27320 32.07147 34136 ft 456 kts 289°
2026-05-07 14:32 42.28935 31.98865 34135 ft 456 kts 289°
2026-05-07 14:32 42.30544 31.90578 34133 ft 456 kts 289°
2026-05-07 14:33 42.33185 31.76918 34140 ft 455 kts 289°
2026-05-07 14:33 42.38425 31.49565 34134 ft 456 kts 288°
2026-05-07 14:34 42.40513 31.41505 34133 ft 452 kts 299°
2026-05-07 14:34 42.43650 31.34177 34137 ft 450 kts 304°
2026-05-07 14:35 42.47067 31.27078 34140 ft 449 kts 306°
2026-05-07 14:35 42.50511 31.20006 34141 ft 450 kts 305°
2026-05-07 14:36 42.53931 31.12886 34132 ft 451 kts 305°
2026-05-07 14:36 42.57311 31.05781 34135 ft 451 kts 305°
2026-05-07 14:37 42.60704 30.98619 34129 ft 451 kts 304°
2026-05-07 14:37 42.65791 30.87854 34138 ft 452 kts 304°
2026-05-07 14:38 42.69185 30.80652 34137 ft 452 kts 304°
2026-05-07 14:38 42.72569 30.73454 34131 ft 452 kts 304°
2026-05-07 14:39 42.75939 30.66266 34137 ft 448 kts 304°
2026-05-07 14:39 42.79255 30.59178 34140 ft 447 kts 304°
2026-05-07 14:40 42.88986 30.38281 34138 ft 441 kts 304°
2026-05-07 14:40 43.02037 30.10022 34139 ft 437 kts 304°
2026-05-07 14:41 43.08393 29.96166 34141 ft 440 kts 304°
2026-05-07 14:41 43.11643 29.89052 34139 ft 440 kts 304°
2026-05-07 14:42 43.14880 29.81947 34137 ft 438 kts 304°
2026-05-07 14:42 43.18077 29.74915 34138 ft 438 kts 304°
2026-05-07 14:43 43.21294 29.67824 34137 ft 438 kts 304°
2026-05-07 14:43 43.24505 29.60728 34135 ft 438 kts 304°
2026-05-07 14:44 43.27712 29.53625 34135 ft 438 kts 304°
2026-05-07 14:44 43.30918 29.46506 34135 ft 438 kts 304°
2026-05-07 14:45 43.34121 29.39376 34138 ft 438 kts 304°
2026-05-07 14:45 43.37294 29.32297 34140 ft 437 kts 303°
2026-05-07 14:46 43.40476 29.25178 34135 ft 437 kts 303°
2026-05-07 14:46 43.43657 29.18045 34135 ft 437 kts 303°
2026-05-07 14:47 43.46836 29.10900 34122 ft 437 kts 303°
2026-05-07 14:47 43.50010 29.03750 34131 ft 438 kts 303°
2026-05-07 14:48 43.53183 28.96587 34125 ft 438 kts 303°
2026-05-07 14:48 43.56337 28.89414 34132 ft 438 kts 303°
2026-05-07 14:49 43.59465 28.82268 34116 ft 438 kts 302°
2026-05-07 14:49 43.62640 28.74999 34133 ft 439 kts 302°
2026-05-07 14:50 43.65768 28.67823 34130 ft 439 kts 302°
2026-05-07 14:50 43.68914 28.60590 34125 ft 439 kts 302°
2026-05-07 14:51 43.72053 28.53356 34112 ft 439 kts 302°
2026-05-07 14:51 43.75203 28.46077 34113 ft 441 kts 302°
2026-05-07 14:52 43.78337 28.38816 34114 ft 441 kts 302°
2026-05-07 14:52 43.81476 28.31524 34105 ft 441 kts 302°
2026-05-07 14:53 43.84616 28.24215 34097 ft 442 kts 302°
2026-05-07 14:53 43.87767 28.16860 34101 ft 444 kts 302°
2026-05-07 14:54 43.90925 28.09469 34095 ft 445 kts 302°
2026-05-07 14:54 43.94057 28.02120 34087 ft 445 kts 301°
2026-05-07 14:55 43.97206 27.94712 34084 ft 446 kts 301°
2026-05-07 14:55 44.00363 27.87268 34078 ft 447 kts 301°
2026-05-07 14:56 44.03507 27.79832 34072 ft 447 kts 301°
2026-05-07 14:56 44.06653 27.72375 34075 ft 447 kts 301°
2026-05-07 14:57 44.09800 27.64895 34069 ft 448 kts 300°
2026-05-07 14:57 44.12949 27.57390 34064 ft 449 kts 300°
2026-05-07 14:58 44.16089 27.49886 34065 ft 449 kts 300°
2026-05-07 14:58 44.19238 27.42338 34057 ft 449 kts 301°
2026-05-07 14:59 44.22376 27.34805 34056 ft 451 kts 300°
2026-05-07 14:59 44.25526 27.27219 34050 ft 452 kts 300°
2026-05-07 15:00 44.28648 27.19680 34055 ft 452 kts 300°
2026-05-07 15:00 44.31788 27.12078 34053 ft 452 kts 300°
2026-05-07 15:01 44.34918 27.04482 34045 ft 452 kts 299°
2026-05-07 15:01 44.38052 26.96851 34045 ft 452 kts 299°
2026-05-07 15:02 44.41181 26.89210 34045 ft 452 kts 299°
2026-05-07 15:02 44.44305 26.81565 34042 ft 452 kts 299°
2026-05-07 15:03 44.47425 26.73908 34039 ft 452 kts 299°
2026-05-07 15:03 44.50515 26.66304 34045 ft 452 kts 299°
2026-05-07 15:04 44.53625 26.58630 34042 ft 452 kts 299°
2026-05-07 15:04 44.56726 26.50958 34040 ft 452 kts 298°
2026-05-07 15:05 44.59797 26.43343 34040 ft 450 kts 298°
2026-05-07 15:05 44.62873 26.35689 34037 ft 450 kts 298°
2026-05-07 15:06 44.65941 26.28035 34038 ft 450 kts 298°
2026-05-07 15:06 44.69007 26.20366 34024 ft 450 kts 297°
2026-05-07 15:07 44.72063 26.12702 34028 ft 449 kts 298°
2026-05-07 15:07 44.74604 26.06308 34026 ft 450 kts 298°
2026-05-07 15:08 44.78178 25.97298 34029 ft 451 kts 298°
2026-05-07 15:08 44.80717 25.90882 34034 ft 451 kts 297°
2026-05-07 15:09 44.84260 25.81903 34033 ft 451 kts 297°
2026-05-07 15:09 44.86791 25.75467 34032 ft 451 kts 297°
2026-05-07 15:10 44.89829 25.67723 34036 ft 451 kts 297°
2026-05-07 15:10 44.92866 25.59963 34039 ft 451 kts 296°
2026-05-07 15:11 44.95902 25.52181 34043 ft 452 kts 296°
2026-05-07 15:11 44.98935 25.44385 34039 ft 452 kts 296°
2026-05-07 15:12 45.01958 25.36593 34031 ft 452 kts 296°
2026-05-07 15:12 45.04980 25.28785 34040 ft 452 kts 296°
2026-05-07 15:13 45.07995 25.20972 34032 ft 452 kts 296°
2026-05-07 15:13 45.10991 25.13182 34033 ft 452 kts 296°
2026-05-07 15:14 45.13997 25.05345 34034 ft 452 kts 296°
2026-05-07 15:14 45.16994 24.97512 34044 ft 453 kts 295°
2026-05-07 15:15 45.19997 24.89640 34048 ft 454 kts 295°
2026-05-07 15:15 45.23001 24.81742 34040 ft 455 kts 295°
2026-05-07 15:16 45.25999 24.73839 34044 ft 455 kts 295°
2026-05-07 15:16 45.28975 24.65972 34045 ft 455 kts 295°
2026-05-07 15:17 45.31966 24.58042 34043 ft 458 kts 294°
2026-05-07 15:17 45.34984 24.50014 34042 ft 458 kts 294°
2026-05-07 15:18 45.37984 24.42015 34041 ft 458 kts 294°
2026-05-07 15:18 45.40960 24.34050 34043 ft 458 kts 294°
2026-05-07 15:19 45.43953 24.26006 34038 ft 460 kts 294°
2026-05-07 15:19 45.46952 24.17937 34043 ft 461 kts 294°
2026-05-07 15:20 45.49951 24.09852 34040 ft 461 kts 293°
2026-05-07 15:20 45.52938 24.01776 34048 ft 461 kts 293°
2026-05-07 15:21 45.55931 23.93653 34042 ft 463 kts 293°
2026-05-07 15:21 45.58919 23.85514 34034 ft 463 kts 293°
2026-05-07 15:22 45.61885 23.77411 34034 ft 463 kts 293°
2026-05-07 15:22 45.64870 23.69237 34033 ft 463 kts 293°
2026-05-07 15:23 45.67844 23.61065 34032 ft 463 kts 292°
2026-05-07 15:23 45.70815 23.52878 34031 ft 463 kts 292°
2026-05-07 15:24 45.73755 23.44748 34027 ft 463 kts 292°
2026-05-07 15:24 45.76707 23.36561 34030 ft 463 kts 292°
2026-05-07 15:25 45.79661 23.28345 34021 ft 464 kts 292°
2026-05-07 15:25 45.82606 23.20133 34020 ft 461 kts 292°
2026-05-07 15:26 45.85532 23.11949 34020 ft 460 kts 292°
2026-05-07 15:26 45.88427 23.03824 34024 ft 460 kts 292°
2026-05-07 15:27 45.91337 22.95627 34023 ft 461 kts 292°
2026-05-07 15:27 45.94250 22.87400 34025 ft 461 kts 292°
2026-05-07 15:28 45.97153 22.79177 34024 ft 461 kts 292°
2026-05-07 15:28 46.00048 22.70950 34034 ft 461 kts 292°
2026-05-07 15:29 46.02944 22.62691 34032 ft 463 kts 292°
2026-05-07 15:29 46.05840 22.54415 34029 ft 463 kts 292°
2026-05-07 15:30 46.08713 22.46175 34033 ft 463 kts 292°
2026-05-07 15:30 46.11597 22.37881 34035 ft 463 kts 292°
2026-05-07 15:31 46.14481 22.29555 34025 ft 465 kts 292°
2026-05-07 15:31 46.17370 22.21193 34027 ft 466 kts 292°
2026-05-07 15:32 46.20250 22.12829 34023 ft 465 kts 292°
2026-05-07 15:32 46.23131 22.04437 34028 ft 466 kts 291°
2026-05-07 15:33 46.27851 21.90627 34024 ft 467 kts 291°
2026-05-07 15:33 46.33862 21.75378 27936 ft 422 kts 313°
2026-05-07 15:33 46.37035 21.70446 367 ft 8 kts 171°
2026-05-07 15:34 46.34800 21.70967 374 ft 165 kts 170°
2026-05-07 15:34 46.32507 21.72713 567 ft 101 kts 121°